GFSNE_500_spd_063.txt.gz
Wind_Speed
40 44 46 46 48 48 48 51 54 56 60 48 47 47 50 55 55 49 47 54 47 56 67 52 47 51 45 44 38 37 41 50 49 48 45 38 39 45
42 44 45 46 45 44 47 50 51 53 55 42 42 35 35 39 44 42 31 37 44 43 37 53 44 44 45 41 45 47 41 48 49 43 42 42 40 43
42 44 45 45 46 46 46 45 46 47 45 38 37 34 30 33 31 44 32 30 37 41 45 42 47 48 43 41 39 38 45 50 48 51 48 47 48 49
42 43 45 43 43 42 41 41 39 41 40 37 33 32 27 28 27 33 31 19 22 28 38 35 38 47 49 43 47 46 45 45 47 53 54 50 52 54
40 44 42 41 39 36 35 37 38 37 35 35 34 33 33 25 23 27 32 35 29 34 39 38 38 38 36 39 43 43 42 41 45 44 47 49 50 52
41 40 37 36 33 31 31 31 30 31 31 31 29 25 23 18 17 18 23 26 30 27 31 33 33 33 36 36 38 39 41 43 43 45 48 51 51 53
39 34 31 30 27 27 27 27 27 28 27 28 28 25 21 18 20 21 21 24 25 27 30 32 35 37 39 41 43 45 47 49 52 55 56 58 59 60
32 28 28 28 27 27 27 27 28 28 28 27 26 26 25 23 22 24 26 28 30 32 35 37 39 42 45 46 49 51 54 57 61 64 65 67 66 66
29 27 26 27 27 28 28 28 29 29 30 29 29 29 29 30 31 33 35 37 39 40 42 44 45 47 50 53 56 59 62 66 68 70 69 62 56 55
28 27 27 27 27 28 28 29 29 30 31 31 32 32 33 34 36 38 40 42 44 46 49 52 54 56 58 59 60 64 68 65 55 48 43 42 42 43
27 27 28 27 28 29 30 31 33 33 34 35 35 36 38 39 41 42 43 45 48 50 52 54 55 57 60 60 62 64 57 47 42 42 43 44 45 46
28 28 28 29 29 30 32 33 35 36 37 37 38 39 41 42 43 44 46 48 50 51 53 54 56 57 59 61 59 54 46 42 42 43 44 45 46 46
29 29 29 29 31 32 34 35 36 38 39 40 41 43 44 45 46 47 48 50 51 53 55 56 57 59 61 59 51 47 43 41 40 39 39 40 39 39
28 30 32 33 34 35 36 37 38 39 40 42 43 44 44 46 47 48 50 52 53 55 57 58 60 62 57 48 43 44 42 42 40 38 37 35 35 36
32 33 34 34 35 36 38 39 40 41 42 44 44 45 46 47 49 50 51 52 55 58 61 63 60 55 49 44 42 42 41 41 37 37 37 35 35 36
37 37 36 36 37 39 41 41 42 43 45 46 46 46 48 49 50 50 52 55 60 64 63 58 54 50 48 45 42 41 41 38 38 39 36 36 35 36
41 40 39 39 39 41 42 43 44 46 47 48 48 48 49 50 51 52 55 60 63 61 57 55 53 50 48 46 45 45 43 41 41 41 39 36 37 39
38 39 40 40 41 42 43 46 47 49 50 50 50 50 51 51 52 56 59 64 58 56 56 55 54 52 49 47 47 47 46 45 45 45 43 41 38 41
39 39 39 40 41 43 46 49 50 52 52 50 50 51 52 52 54 58 63 57 53 53 53 54 54 53 49 46 46 49 48 47 47 47 46 45 41 41
40 41 41 40 41 45 48 52 53 53 52 51 51 54 53 53 56 60 58 50 49 50 49 50 50 50 48 46 44 43 48 49 48 47 47 47 46 45
40 39 38 41 45 49 51 53 52 53 52 53 54 54 52 53 57 59 49 46 45 45 45 45 46 45 45 46 43 41 44 47 49 49 49 49 49 48
38 40 43 47 50 53 53 52 53 53 53 55 53 51 52 55 58 53 45 43 43 44 45 43 42 39 38 39 39 41 42 46 50 50 50 51 52 50
44 48 50 51 52 52 52 53 54 56 54 52 49 50 54 57 55 48 44 43 43 44 45 43 40 37 34 33 32 32 37 42 45 48 49 52 52 50

GFSNE_500_spd_066.txt.gz
Wind_Speed
41 41 41 42 43 44 46 48 49 45 45 45 44 45 45 42 43 42 40 36 33 42 49 52 48 46 45 45 48 41 39 39 38 37 35 40 42 43
40 39 40 40 42 44 45 48 45 44 40 39 41 40 39 39 38 32 31 25 22 27 25 28 39 36 32 32 37 48 45 39 37 38 41 40 40 45
40 40 40 41 43 43 46 44 41 39 36 36 35 36 35 34 35 29 20 19 26 18 16 12 21 28 28 29 38 35 36 35 36 37 39 42 44 47
40 42 41 42 41 44 42 39 35 33 33 34 33 34 34 32 30 21 15 16 16 13 14 17 20 20 24 24 27 30 31 34 38 41 41 43 42 42
42 40 41 40 42 41 37 33 30 31 31 31 31 31 30 29 27 21 16 18 16 15 19 20 20 21 25 28 29 29 29 32 33 34 36 37 39 42
39 38 38 39 39 35 31 30 30 29 30 30 28 28 28 29 26 22 20 19 18 18 18 20 22 23 26 27 29 30 32 32 34 37 38 41 42 44
35 35 36 35 34 31 30 28 29 29 30 29 28 28 28 27 28 28 26 26 25 25 25 25 27 29 31 33 35 36 37 38 40 42 45 46 47 50
34 33 33 32 31 31 29 29 30 29 29 30 30 30 30 29 29 29 30 31 32 32 34 35 35 36 38 39 40 42 43 44 46 47 50 53 55 59
32 32 31 30 30 30 30 31 31 31 32 32 32 32 32 32 33 33 33 34 35 37 38 40 40 40 42 43 43 44 45 48 49 51 53 57 58 58
30 30 30 30 30 31 31 32 32 32 33 34 35 35 36 36 37 38 38 39 40 41 43 43 45 46 47 48 48 49 51 51 51 52 54 54 52 49
29 30 30 31 32 33 33 32 32 35 36 37 37 38 38 39 40 40 41 42 43 44 46 47 49 51 52 53 55 56 56 56 56 55 51 46 43 43
28 29 31 32 32 32 33 34 36 37 36 37 38 39 40 41 42 42 43 43 44 46 48 50 52 54 55 55 57 58 59 60 59 54 46 43 42 41
31 32 33 33 34 35 36 37 37 37 38 39 40 41 42 43 43 44 44 45 46 48 50 53 54 55 55 56 59 61 62 60 54 48 44 42 41 40
36 36 36 36 37 38 38 39 39 40 41 42 42 43 44 44 45 46 46 46 48 51 53 52 52 55 57 61 61 60 56 52 49 46 43 42 41 37
36 36 37 39 40 41 41 41 41 42 42 42 43 45 46 47 47 48 48 48 51 52 51 53 55 58 60 55 52 52 51 51 49 46 44 42 40 37
35 36 38 39 40 40 41 42 43 43 43 44 46 48 49 50 50 50 50 51 53 53 53 55 57 58 52 52 51 50 51 48 49 49 46 44 41 39
35 37 38 40 40 41 42 43 44 44 44 47 49 52 53 52 50 50 51 53 53 54 56 57 57 51 49 50 49 49 49 49 49 49 49 46 44 43
37 38 38 38 40 41 41 43 43 45 48 51 53 55 54 53 51 52 54 54 52 54 57 58 51 45 44 46 47 47 46 48 50 50 49 47 45 46
37 37 37 39 39 41 42 45 48 50 53 56 57 54 53 52 53 54 53 50 52 55 56 50 47 43 42 44 45 44 43 45 46 45 47 47 46 46
36 38 39 41 43 44 46 48 51 53 55 56 56 55 54 55 54 52 49 50 52 54 50 47 47 46 45 44 42 37 41 40 43 42 43 43 44 46
39 40 42 43 44 45 47 49 51 51 52 53 54 53 53 50 48 48 50 52 53 50 46 45 47 47 46 45 42 38 36 37 37 41 44 44 44 46
41 43 46 44 43 44 45 46 49 51 54 55 56 55 53 49 49 48 50 51 52 48 46 45 47 48 49 48 40 35 32 32 33 32 35 41 45 45
44 47 42 40 41 43 46 48 51 53 56 56 55 54 52 49 47 49 49 51 49 47 46 44 46 49 50 47 37 33 33 32 30 30 30 32 33 34

GFSNE_500_spd_069.txt.gz
Wind_Speed
41 40 39 38 38 39 38 39 39 39 41 42 40 38 35 35 38 38 38 36 30 21 23 25 23 24 30 28 32 41 37 37 35 29 29 30 35 37
39 39 38 37 38 39 39 39 40 40 42 39 34 32 32 33 33 34 34 23 18 18 14 17 21 19 20 19 20 24 32 32 30 30 35 36 32 35
38 37 37 38 40 41 40 40 40 40 38 33 30 30 30 30 30 31 30 22 23 22 10 9 8 8 8 9 16 19 21 25 29 29 31 33 36 32
37 38 38 40 40 39 39 38 38 38 32 29 28 28 29 29 27 29 27 24 23 23 20 18 15 13 13 12 17 20 24 25 27 29 34 36 39 43
38 39 39 38 37 36 36 37 36 32 30 29 28 29 28 28 28 27 28 26 24 22 21 20 20 19 19 19 22 25 26 28 31 31 33 35 36 36
37 36 35 34 35 35 35 34 31 30 29 28 29 29 29 29 30 29 29 29 28 26 25 24 22 22 22 23 24 25 27 29 31 33 34 35 36 38
32 32 32 33 33 34 33 31 30 29 29 30 30 30 30 30 31 31 32 31 31 31 31 29 28 28 28 29 31 32 32 33 34 35 36 38 40 41
30 31 32 33 32 32 31 31 30 29 30 31 31 32 33 33 33 34 34 34 34 35 35 36 35 34 34 35 36 36 38 39 40 41 42 43 45 46
29 29 31 31 30 30 31 31 31 32 32 33 33 34 35 36 36 37 37 37 38 38 38 40 39 37 38 38 40 41 42 42 44 45 46 47 48 49
27 27 28 28 29 29 30 30 32 33 33 33 35 37 37 37 38 38 39 39 40 40 41 41 41 41 41 42 44 44 45 46 46 47 47 48 50 51
26 27 27 29 29 30 30 30 31 33 34 37 39 39 38 38 40 40 40 41 41 41 42 42 43 43 44 46 48 50 53 54 54 53 53 53 53 54
27 28 30 32 33 34 35 35 35 35 37 38 39 40 41 41 41 41 42 42 42 43 43 44 45 46 46 49 52 55 55 56 57 57 58 59 59 56
29 32 33 33 34 35 35 36 38 39 39 40 40 41 42 42 42 42 43 45 46 46 46 46 46 47 49 52 54 54 55 56 57 60 61 57 53 50
29 30 31 32 33 34 36 37 37 39 39 40 41 42 43 43 43 44 46 47 49 48 47 47 48 50 53 53 54 56 55 57 58 55 53 52 51 49
30 30 30 32 34 35 36 37 38 38 39 39 41 42 44 44 46 49 52 53 53 52 50 48 50 53 52 51 52 56 56 54 51 50 51 51 50 49
31 31 32 34 35 36 36 35 36 38 39 40 41 43 46 49 52 55 57 56 54 52 50 51 52 50 49 51 53 53 49 46 48 48 48 48 49 49
33 34 34 35 35 35 35 37 37 38 40 41 44 47 50 53 54 55 54 54 53 54 55 52 46 45 49 52 49 45 44 45 46 48 47 47 50 51
34 35 36 35 35 37 38 39 41 42 44 46 49 50 49 49 52 54 54 53 52 51 48 46 46 47 48 47 43 43 46 47 47 46 46 46 46 49
35 36 36 36 37 39 41 42 44 44 45 46 44 45 47 48 52 55 55 54 50 47 47 47 47 47 46 44 42 45 47 47 45 45 42 43 41 43
36 36 37 39 41 42 43 46 45 44 42 43 45 48 51 53 55 55 54 53 50 48 46 47 47 47 44 42 37 44 48 46 46 40 37 37 35 36
37 38 39 41 42 43 44 45 42 42 45 48 52 55 55 54 56 55 54 52 49 44 45 47 48 47 46 43 38 41 48 50 44 34 33 30 30 30
39 40 41 43 44 44 43 42 43 48 52 55 57 58 58 57 57 55 53 50 45 43 44 46 46 46 46 40 39 39 38 37 36 33 32 29 24 20
40 42 44 45 43 42 42 44 50 54 56 57 59 61 61 61 57 55 51 46 42 43 44 44 44 46 41 40 36 31 29 29 29 27 28 26 22 18

GFSNE_500_spd_072.txt.gz
Wind_Speed
51 50 47 44 43 41 40 41 41 40 42 42 41 42 42 38 33 31 30 30 30 30 26 26 28 30 25 30 23 35 31 27 31 32 21 21 28 36
48 44 42 41 40 41 41 41 42 43 41 40 41 41 39 33 30 30 27 27 27 25 26 27 24 22 20 19 23 28 32 26 21 27 31 29 31 32
42 41 39 39 40 40 41 42 41 40 39 39 39 38 34 31 29 29 27 27 27 24 24 24 22 24 21 14 13 16 19 22 26 26 30 28 29 30
40 39 39 39 39 40 39 38 37 37 38 38 36 33 32 30 29 29 29 28 28 26 25 25 25 22 17 20 17 19 19 17 19 22 23 29 30 31
38 38 39 40 37 36 34 34 36 36 36 35 33 31 30 29 30 30 30 30 30 29 28 29 27 27 27 22 18 20 24 27 26 28 29 33 35 37
38 38 37 34 32 33 34 34 35 34 34 33 32 31 30 31 31 32 32 32 33 32 32 32 32 31 30 31 30 26 25 25 26 28 30 31 34 35
36 32 31 30 30 31 32 33 34 32 32 32 31 30 31 31 32 33 34 34 35 35 35 35 35 35 34 34 35 34 35 33 32 33 35 37 38 38
30 27 28 29 29 30 31 32 32 32 31 31 31 31 32 32 32 34 36 36 36 37 36 37 38 38 38 39 39 38 38 37 38 38 39 41 42 44
27 27 28 27 28 27 27 28 29 30 30 31 31 31 32 33 35 37 37 36 36 37 38 39 40 40 41 42 42 41 41 41 41 42 42 43 44 46
26 27 26 26 27 27 27 27 28 30 31 32 33 34 35 36 36 37 37 38 39 39 40 41 42 42 42 43 44 44 45 45 45 45 46 47 48 48
26 26 25 26 27 29 31 32 32 32 32 32 34 36 37 38 38 38 39 40 41 42 43 43 43 43 44 46 46 47 47 47 48 49 50 52 54 54
25 26 26 27 30 31 32 31 32 33 34 35 36 36 37 38 38 38 39 40 42 43 44 44 45 46 47 48 49 50 50 51 52 53 56 57 57 57
25 25 26 27 28 28 28 29 31 32 33 35 36 37 37 37 38 39 40 41 43 46 48 50 52 53 52 51 52 52 52 52 55 57 57 56 56 57
26 28 30 30 29 29 30 31 33 35 36 37 35 35 36 36 37 39 42 44 47 50 51 53 53 54 53 53 53 53 54 56 55 53 52 54 56 57
29 31 32 31 31 31 33 34 35 35 35 36 36 37 38 41 42 44 47 48 48 48 48 51 52 52 52 52 54 55 53 49 48 51 53 56 54 51
31 31 32 33 33 34 35 35 36 37 37 38 39 41 43 44 46 46 45 45 48 48 49 51 53 52 52 52 48 48 48 48 52 52 48 46 46 46
31 32 33 33 34 35 36 37 37 38 39 41 43 45 46 46 42 43 46 48 51 53 55 54 53 52 50 48 47 48 48 50 50 49 47 46 47 49
31 33 34 34 35 36 37 37 38 40 41 44 46 47 44 42 45 48 52 55 59 58 56 56 55 51 47 46 46 48 48 48 48 47 47 47 45 48
34 35 36 36 37 37 38 40 40 41 44 45 46 42 43 48 51 56 58 60 60 61 59 57 54 50 45 43 45 48 48 46 47 47 47 46 44 47
36 37 36 37 38 38 40 41 42 43 45 45 42 44 49 53 56 57 59 62 63 62 59 56 52 46 41 42 43 46 46 48 48 45 48 47 42 37
36 37 38 39 40 39 41 43 44 44 44 42 45 49 53 54 56 58 62 65 63 57 52 50 46 42 41 42 43 43 45 47 44 42 38 31 28 28
36 38 39 40 40 41 43 44 45 43 43 45 50 52 53 55 57 61 62 56 52 48 45 44 42 41 43 43 43 41 41 42 42 35 28 23 19 20
41 42 42 43 43 44 46 44 41 41 44 49 51 52 54 56 59 58 54 52 49 46 43 40 41 43 45 45 44 40 35 39 36 31 31 25 20 17

GFSNE_500_spd_078.txt.gz
Wind_Speed
48 45 43 43 43 44 46 46 48 44 40 37 37 38 39 41 38 34 33 32 32 29 27 26 24 24 23 21 20 21 23 24 26 23 28 35 30 26
45 43 42 43 43 45 46 47 45 42 37 36 36 39 40 35 34 33 32 31 28 26 26 26 26 25 26 25 22 23 23 23 24 24 22 23 31 29
43 43 42 43 44 45 46 44 40 36 35 34 36 33 32 32 31 31 30 27 26 26 26 26 26 26 27 27 25 24 23 22 24 24 24 22 20 24
42 43 43 44 44 45 43 38 36 34 33 33 30 30 29 28 27 27 27 26 26 27 27 26 26 26 28 28 28 28 27 26 23 24 25 25 24 23
42 43 43 43 44 39 35 35 34 34 31 29 28 27 26 26 26 27 26 25 26 26 27 26 25 26 27 29 29 28 28 28 27 26 25 27 26 26
44 44 44 44 40 37 34 38 32 33 28 27 27 27 27 27 26 26 26 26 26 26 26 26 27 28 29 29 29 29 29 30 31 31 30 28 29 29
47 48 44 39 34 35 35 29 30 29 28 26 26 25 26 25 25 25 26 26 26 28 28 29 30 28 29 30 31 31 31 32 33 33 33 33 31 31
48 39 35 32 37 30 33 29 27 29 27 25 26 25 26 27 29 28 27 28 28 31 32 31 31 31 32 32 32 32 33 34 34 35 35 35 35 35
43 44 37 35 30 30 28 28 27 28 27 26 28 29 28 28 28 27 28 29 30 31 31 31 32 32 33 33 33 33 34 35 37 38 39 40 40 40
31 32 33 30 30 27 28 28 28 27 27 29 29 29 26 26 27 27 29 30 31 31 31 31 32 33 34 34 35 37 38 40 41 41 43 45 48 49
28 29 29 28 28 26 28 31 28 28 28 28 27 26 26 27 28 30 31 31 30 31 31 32 34 35 37 39 40 41 39 38 42 44 45 47 49 51
26 26 25 26 27 27 30 31 28 27 28 30 28 28 29 29 30 30 31 32 32 33 34 36 37 39 41 39 37 38 42 44 46 48 49 49 49 50
25 25 26 27 28 28 30 30 29 30 31 30 30 31 31 31 32 33 34 35 36 36 38 39 42 41 38 39 42 44 48 51 53 54 55 55 53 50
25 24 26 29 29 29 29 30 30 30 29 30 30 31 32 33 34 36 37 38 39 40 41 43 41 37 40 44 49 53 56 57 58 57 56 55 54 53
25 27 30 31 32 33 33 32 31 29 29 30 32 33 34 35 36 38 39 40 41 42 43 41 38 42 46 50 52 56 59 62 64 65 60 55 52 50
28 30 32 33 35 36 35 34 30 29 31 33 34 36 37 38 39 40 40 41 43 44 42 38 42 47 50 52 55 58 61 63 61 55 49 46 46 46
31 32 33 34 35 36 36 36 34 33 33 36 37 38 39 40 41 41 42 43 44 42 39 43 48 48 52 53 56 60 59 55 49 43 38 37 39 38
30 31 31 33 35 36 36 35 35 36 36 38 38 39 41 42 41 42 43 45 41 38 43 47 48 51 52 55 57 56 54 50 45 40 36 33 33 36
33 33 35 36 35 34 34 35 35 36 38 39 39 40 41 41 42 44 45 42 39 43 47 48 51 51 52 55 56 53 52 48 43 40 36 33 34 37
27 29 30 30 31 32 33 35 37 38 39 40 41 43 43 43 44 45 42 38 41 46 48 51 51 52 52 54 51 55 51 46 42 39 38 37 38 38
30 32 34 35 35 36 38 39 39 41 42 43 44 45 44 44 45 44 38 41 44 47 50 51 52 53 54 55 51 52 47 45 42 41 42 42 42 39
38 39 39 39 39 40 42 44 45 44 44 45 45 45 44 45 47 39 39 44 46 49 51 52 54 55 56 54 51 49 44 46 47 46 46 45 42 38
43 44 44 44 43 44 45 45 45 45 44 44 45 45 45 49 42 37 43 46 49 51 52 53 55 56 57 54 51 46 45 48 49 46 46 47 42 37

GFSNE_500_spd_081.txt.gz
Wind_Speed
48 46 45 43 41 39 38 38 39 40 42 43 44 41 35 33 36 34 31 29 28 27 27 26 23 23 23 22 21 21 21 21 20 22 21 19 19 21
44 43 42 41 40 38 39 39 41 42 42 42 39 35 34 35 34 31 30 27 24 24 24 24 23 23 23 22 22 22 22 22 22 22 22 21 18 16
45 44 43 42 42 40 41 42 42 42 42 38 35 33 32 34 31 29 25 25 24 24 22 22 23 24 23 22 21 21 23 24 24 23 22 23 22 21
47 47 43 42 43 43 42 42 43 43 38 32 30 31 33 29 28 26 25 24 23 23 22 23 24 24 23 22 22 23 23 24 24 24 23 23 23 23
49 44 42 43 42 44 43 42 43 34 32 35 35 30 28 27 27 24 24 23 22 23 23 24 24 24 24 25 25 27 27 26 26 25 25 25 26 26
43 43 43 43 44 45 42 40 36 33 35 30 30 28 28 25 24 23 23 22 23 24 24 25 25 25 27 28 28 27 28 28 28 28 29 29 29 28
45 41 42 44 45 43 43 36 33 30 28 29 29 28 27 24 23 23 24 24 25 26 25 27 27 28 29 30 29 30 30 30 31 30 30 30 30 30
46 43 44 45 47 36 36 32 35 31 29 28 29 26 27 26 24 27 27 25 25 26 27 28 28 28 29 29 29 31 31 31 31 31 30 31 32 32
44 40 35 38 46 42 37 35 27 28 28 28 29 27 27 28 29 29 27 25 25 26 28 29 28 28 29 28 28 29 30 31 32 34 36 36 36 35
48 46 49 42 34 31 30 28 28 25 28 28 29 27 27 28 26 26 26 26 27 28 28 29 29 30 30 30 31 32 33 36 37 37 37 35 37 39
32 34 33 29 25 27 27 24 22 26 28 29 28 26 26 27 25 26 27 28 28 29 29 31 31 32 33 33 34 36 38 37 36 35 38 41 43 46
25 25 26 27 30 25 20 21 24 27 28 28 29 29 29 28 28 28 29 29 31 31 32 33 33 34 35 36 38 39 37 36 38 41 43 46 50 53
26 27 29 27 22 21 23 24 26 26 27 28 29 32 31 29 30 30 30 32 33 33 34 35 36 37 38 39 38 36 37 40 43 46 50 53 56 59
26 27 26 23 24 24 25 28 27 28 29 30 31 31 30 29 30 31 32 34 35 35 36 37 38 38 41 40 37 38 42 45 48 51 54 56 59 61
18 19 20 22 24 26 28 30 30 31 33 33 33 30 29 29 31 33 34 35 36 36 37 37 39 40 40 37 39 44 47 48 51 52 56 58 57 53
24 24 25 27 27 29 30 31 32 34 35 35 36 35 32 31 32 34 35 36 37 38 38 39 40 39 37 38 43 45 47 50 51 53 55 54 50 48
26 28 29 30 30 31 32 32 33 34 36 36 36 35 34 33 34 35 36 37 39 39 41 41 40 37 38 42 44 47 49 50 52 53 53 50 50 45
27 27 24 24 27 29 31 31 33 36 35 33 33 34 34 34 35 36 38 38 40 41 43 42 38 39 41 44 46 49 50 51 52 53 52 50 49 45
27 29 31 33 34 34 33 33 33 32 32 32 32 34 34 35 37 39 40 41 43 44 43 41 40 41 43 47 49 51 51 53 53 55 52 48 45 41
27 29 28 28 28 29 29 30 31 32 33 34 35 35 37 39 41 43 43 44 44 44 45 41 41 44 45 48 51 53 53 54 54 54 51 49 45 42
33 37 33 33 34 34 36 36 35 36 38 38 40 41 42 43 43 44 44 44 45 46 43 41 44 46 47 50 51 54 56 56 54 51 50 46 45 45
33 34 38 39 40 42 43 42 42 42 41 42 44 44 43 43 44 44 45 46 47 49 40 43 47 49 51 52 53 53 55 56 55 50 46 46 47 43
38 41 44 46 48 49 50 50 50 49 48 48 48 49 49 50 50 47 48 49 49 40 39 45 49 52 52 54 53 54 54 54 51 46 46 47 36 30

GFSNE_500_spd_084.txt.gz
Wind_Speed
53 52 53 51 49 45 41 40 38 37 38 39 41 42 42 41 41 36 33 36 32 29 25 25 24 23 23 23 21 21 20 20 20 20 20 19 17 18
52 53 52 50 48 45 42 41 41 39 41 41 43 43 43 42 38 34 33 32 28 26 23 24 24 22 21 22 22 21 21 20 19 20 20 21 20 18
53 54 51 48 48 47 46 43 42 42 42 43 44 44 42 38 34 32 33 29 24 24 24 23 22 21 21 22 22 22 22 20 20 20 21 22 21 21
55 54 51 50 49 47 46 45 44 44 44 44 43 44 37 33 35 33 29 27 24 25 22 21 21 21 21 22 22 21 21 22 23 24 24 24 23 22
54 54 51 51 48 45 44 44 44 45 46 43 42 38 35 36 32 30 29 26 25 24 23 22 22 22 23 23 22 23 24 25 25 24 25 24 25 25
55 52 50 48 46 44 45 47 45 45 44 39 42 37 35 31 32 30 28 26 24 24 24 24 23 23 24 25 26 26 26 26 26 27 27 27 27 27
49 49 50 51 49 45 42 43 44 41 37 42 36 32 28 30 29 31 29 26 25 25 26 26 24 24 25 26 27 27 28 28 28 28 29 29 28 27
46 46 48 46 42 42 37 40 43 40 35 34 37 34 25 28 29 30 29 28 28 27 27 26 25 25 26 27 27 27 27 27 27 28 27 27 28 29
42 41 43 47 46 42 40 40 41 46 40 38 32 23 26 28 29 30 30 30 29 26 26 27 26 26 26 26 27 28 28 28 29 29 30 32 34 34
42 42 41 41 45 45 46 46 44 38 33 30 25 24 26 27 28 28 28 26 25 25 26 28 28 27 27 28 29 30 31 32 32 34 35 35 34 33
37 38 37 36 33 31 33 35 32 32 28 23 23 25 26 27 26 26 27 27 26 27 28 29 30 30 30 30 31 32 33 34 36 37 36 35 34 36
33 32 34 30 28 30 31 30 31 24 22 22 24 24 26 28 28 29 29 29 29 29 30 31 32 32 32 32 33 34 35 36 37 37 36 36 38 40
35 31 31 30 29 29 29 27 25 22 21 24 24 25 26 28 29 31 30 30 30 31 32 32 33 33 34 35 35 36 36 37 37 37 37 41 43 44
27 25 25 29 30 29 26 22 23 24 25 27 28 27 27 29 30 30 30 28 28 30 32 33 34 34 35 35 36 38 38 38 37 38 41 42 44 46
27 23 22 21 20 21 21 24 27 27 28 29 30 30 30 31 31 33 33 31 29 30 32 34 35 35 36 37 39 39 39 38 38 41 42 43 46 48
26 25 24 23 23 24 24 25 26 28 29 30 31 31 33 34 33 32 32 31 29 31 32 34 35 36 38 39 41 41 40 40 41 42 44 47 49 50
24 24 24 23 24 25 25 26 27 27 28 29 30 32 34 33 31 31 31 30 31 32 33 35 37 39 40 41 42 43 43 43 42 44 47 50 51 52
23 25 26 27 27 26 26 25 26 27 27 29 31 33 32 32 32 32 32 32 34 36 38 39 41 42 43 43 43 44 45 45 45 45 48 51 53 55
28 28 28 28 29 28 31 33 34 33 33 32 31 32 33 33 33 34 35 36 39 41 42 42 43 43 44 44 45 45 47 45 47 48 51 51 52 56
28 31 33 32 29 29 31 32 32 32 32 33 34 35 35 36 38 40 41 42 43 43 43 44 44 44 45 45 44 45 48 47 49 52 53 52 53 53
34 34 33 36 40 40 39 38 38 38 39 41 42 43 43 42 43 45 47 46 45 45 46 47 46 46 46 46 43 45 48 49 52 52 53 53 53 52
36 35 36 36 37 38 40 42 43 45 46 47 47 47 49 50 50 51 50 49 50 49 52 50 49 48 48 45 43 47 51 53 52 52 52 53 51 49
37 38 38 39 40 42 44 47 49 51 53 55 56 56 56 55 55 55 56 56 55 53 51 49 50 50 47 42 43 48 51 52 52 52 54 53 51 46

GFSNE_500_spd_087.txt.gz
Wind_Speed
49 49 50 51 52 51 50 47 47 46 42 42 42 43 43 42 40 40 41 40 37 35 36 29 26 24 22 22 21 19 19 19 19 19 19 19 19 20
52 52 54 52 50 50 51 52 48 46 46 45 44 45 44 42 42 40 41 36 34 33 35 27 23 24 23 21 20 18 19 20 19 20 20 20 20 19
53 55 53 53 53 53 53 51 50 49 46 45 45 45 44 43 42 41 39 34 31 36 30 26 25 23 22 19 19 18 18 18 19 20 20 20 20 20
57 58 57 58 59 56 55 54 50 49 49 46 47 45 44 42 41 37 35 31 34 31 29 25 26 24 22 20 18 18 18 19 19 20 21 22 23 22
60 59 56 60 58 53 53 53 50 47 48 47 46 46 44 36 41 35 35 35 29 31 28 25 25 25 23 21 19 19 19 19 22 22 22 22 23 23
49 49 48 48 47 48 49 50 47 47 46 45 42 41 39 38 35 37 37 29 31 31 28 26 24 25 24 22 21 21 22 22 23 23 24 24 25 25
47 47 47 46 46 46 47 46 47 49 49 41 40 39 36 35 40 36 30 30 30 31 28 27 25 26 24 22 22 23 23 23 23 24 24 25 25 25
46 46 44 42 42 42 42 43 43 40 38 41 38 41 35 38 35 38 30 28 31 30 30 28 28 26 24 23 24 24 23 24 25 24 24 24 25 26
44 44 44 45 44 42 43 42 42 43 39 36 37 40 39 37 32 25 27 26 30 32 31 31 29 25 24 24 25 25 25 25 26 26 27 28 28 29
43 42 40 39 40 41 39 38 38 40 39 42 41 36 36 31 27 25 25 27 30 30 28 27 26 25 25 25 26 27 27 27 28 29 30 31 32 33
39 38 35 34 35 34 33 34 29 29 34 41 43 37 28 23 22 24 25 26 28 27 27 27 26 26 26 27 27 28 30 30 30 32 33 34 34 34
36 35 33 34 36 33 31 30 30 33 36 33 27 28 25 22 24 23 24 27 30 30 29 29 29 28 28 28 29 30 32 32 33 35 36 36 37 36
32 33 30 29 29 28 29 30 30 30 30 28 27 25 23 24 23 23 24 26 28 30 30 31 30 29 29 30 32 33 33 34 35 37 38 38 39 38
33 31 29 29 29 28 27 26 26 25 24 23 24 22 24 26 26 26 26 27 28 30 31 32 31 30 30 33 35 35 35 36 37 39 39 40 40 39
28 27 27 28 25 24 23 22 21 22 22 24 26 26 26 27 28 28 27 31 30 27 29 31 31 31 32 33 35 35 35 36 39 40 41 41 41 41
27 26 26 25 24 23 22 23 23 24 25 25 26 27 29 30 29 27 30 32 32 31 30 31 32 31 33 34 36 37 37 39 41 41 42 42 43 44
28 26 24 24 23 23 21 21 21 22 24 25 27 27 27 28 29 30 32 31 31 31 30 32 32 33 35 37 39 40 42 43 43 42 42 44 46 47
27 26 26 25 24 24 25 26 27 28 28 28 28 28 30 32 33 33 32 32 33 33 33 33 35 37 38 41 42 43 44 44 44 42 43 46 49 49
28 29 28 27 28 28 28 27 29 28 28 30 30 30 31 33 33 34 34 34 36 38 39 39 40 41 41 43 43 44 45 44 45 44 45 47 46 48
33 32 31 30 30 30 32 34 34 33 35 34 36 37 36 37 38 39 41 42 44 45 45 46 47 46 45 45 45 49 49 48 48 48 47 49 47 48
29 31 32 34 35 36 37 37 38 41 43 43 42 42 43 44 45 47 48 47 46 47 49 52 53 51 49 50 51 52 50 48 48 49 50 46 47 50
34 34 36 36 36 36 36 36 37 40 40 40 42 44 46 49 50 51 51 51 53 54 56 56 56 54 54 56 53 52 50 50 49 48 47 47 47 49
37 38 38 38 39 38 37 37 37 37 38 40 42 44 44 44 45 46 47 49 51 52 52 52 52 53 53 50 50 50 50 49 49 48 47 47 48 47

GFSNE_500_spd_090.txt.gz
Wind_Speed
43 48 50 50 51 52 52 52 52 48 47 46 46 46 44 44 45 43 43 42 39 37 36 30 31 27 29 22 21 20 18 18 18 16 15 16 16 16
47 47 50 49 48 50 52 54 54 53 53 49 48 48 48 47 46 45 44 42 38 33 36 30 27 28 24 22 22 19 16 18 18 16 15 16 16 16
50 49 51 52 53 54 57 59 60 59 57 56 52 50 50 48 46 44 42 39 38 34 32 27 29 26 23 22 23 20 16 17 17 16 14 16 15 16
51 51 53 53 55 56 55 55 54 53 53 53 51 48 46 45 43 40 36 36 38 32 28 32 27 26 24 23 24 21 18 16 17 16 14 15 17 18
47 46 47 48 50 50 50 50 48 47 46 45 45 44 44 43 42 38 37 33 31 32 31 29 26 27 25 24 23 22 20 17 18 17 17 18 19 20
47 49 49 49 48 46 46 45 45 44 43 41 39 39 38 43 43 40 38 35 32 34 29 25 25 27 26 24 24 22 21 19 20 19 19 18 19 21
48 47 46 45 45 45 43 43 44 43 42 41 40 36 31 33 36 34 34 34 34 31 25 27 25 26 26 25 25 25 23 20 20 21 20 19 20 20
40 40 40 41 41 42 42 41 41 41 42 40 35 32 34 33 31 34 33 32 36 30 26 28 24 25 27 28 28 27 24 22 21 20 20 20 19 21
41 41 40 40 40 40 38 37 36 36 37 35 32 33 29 33 28 33 35 34 34 31 28 23 25 27 30 30 29 28 25 23 22 21 21 21 21 23
38 38 38 40 39 37 33 31 30 29 28 29 27 30 34 37 40 37 35 34 31 25 23 24 26 28 29 29 28 28 26 25 24 24 24 24 24 26
38 39 39 40 38 36 33 30 31 29 26 26 26 29 31 32 33 25 27 24 22 24 23 22 23 25 25 25 27 28 27 27 26 26 27 28 28 30
38 41 38 36 31 32 30 29 29 28 27 26 25 25 24 24 23 21 20 22 23 22 23 24 26 26 27 27 28 29 29 29 29 29 30 31 31 32
39 38 36 35 33 32 27 26 26 27 25 24 27 28 26 23 20 20 22 22 22 23 24 25 27 28 28 30 32 31 31 31 31 31 32 33 34 35
36 35 33 33 30 28 25 24 24 24 23 21 20 20 20 20 21 22 23 25 25 25 24 28 29 28 29 32 34 34 33 31 32 34 34 35 36 37
35 32 29 27 27 26 24 23 22 21 20 20 20 20 20 22 24 25 26 27 28 29 27 28 29 31 29 28 31 34 33 32 34 35 36 38 38 40
36 34 34 30 28 26 23 20 21 21 21 21 21 23 24 25 27 28 29 30 28 28 28 29 30 30 30 30 33 34 33 33 35 36 38 40 42 42
32 33 32 31 28 26 25 23 22 22 22 22 23 23 23 24 25 26 27 28 28 28 30 29 29 30 31 32 34 35 34 36 37 39 40 41 42 42
32 29 28 28 27 26 24 22 21 23 24 24 27 28 28 28 29 31 31 30 30 31 31 32 33 33 34 36 38 39 40 41 41 41 41 42 43 42
34 34 29 29 29 28 27 25 25 27 28 28 29 28 28 28 29 31 32 32 32 33 34 35 37 39 41 43 44 45 45 45 45 43 44 44 46 48
27 30 32 33 31 30 29 29 29 30 31 33 35 35 37 37 36 38 38 38 39 40 42 42 44 45 45 46 46 48 50 51 48 48 47 47 48 48
35 29 24 25 27 29 30 31 33 34 34 34 34 37 37 36 36 38 40 42 44 45 47 49 49 49 51 52 53 53 52 51 49 50 52 50 48 48
36 35 36 35 34 34 33 35 36 36 36 37 37 37 37 38 39 41 43 43 44 44 44 44 43 44 46 46 49 52 53 53 52 51 52 50 47 47
37 36 35 35 35 35 37 37 36 34 32 32 34 34 33 33 34 36 37 39 42 43 45 45 44 47 46 44 44 44 45 45 45 46 48 47 45 45

GFSNE_500_spd_093.txt.gz
Wind_Speed
50 49 44 45 46 48 47 47 48 49 48 49 51 50 50 51 49 47 47 47 46 45 41 37 33 34 30 29 23 23 21 21 19 17 16 15 15 16
50 47 48 49 50 50 51 50 50 53 55 56 56 56 56 56 55 52 50 49 48 41 37 34 33 33 30 22 23 22 21 21 19 17 16 17 15 16
50 48 47 47 50 49 51 51 53 54 55 54 52 52 51 50 49 47 47 45 43 45 35 31 31 30 25 24 24 22 22 21 19 18 17 18 16 16
48 49 50 53 52 47 46 48 49 51 52 51 49 48 47 46 44 44 41 39 41 40 31 32 32 27 27 24 25 23 23 22 21 20 18 18 17 16
46 46 44 42 43 46 49 49 49 48 47 46 45 44 42 41 38 38 37 37 39 34 34 35 30 32 27 22 23 24 23 23 22 22 20 19 19 18
39 41 43 45 47 47 46 45 45 44 43 42 42 41 39 39 39 36 33 32 34 35 36 32 29 26 21 23 22 24 23 24 24 23 22 21 22 21
42 43 44 44 42 41 41 41 40 40 41 39 38 38 35 34 32 30 31 30 30 29 29 29 27 22 23 23 22 24 24 25 25 25 24 23 23 22
40 40 42 42 41 40 38 37 39 39 39 35 34 34 35 34 29 27 28 32 30 31 31 31 28 23 24 25 24 24 26 26 26 27 26 24 24 23
40 40 40 39 38 37 36 38 39 36 34 30 29 28 28 29 27 27 31 33 32 34 28 27 28 28 28 25 26 26 28 28 28 29 28 26 24 23
40 40 40 39 37 37 37 38 36 32 30 29 28 28 27 24 24 24 25 30 34 30 30 33 29 24 24 24 24 26 29 29 29 30 29 28 26 25
41 40 39 38 37 37 36 33 30 29 29 29 28 26 26 26 24 24 25 23 22 22 22 20 23 23 21 21 22 24 25 27 28 29 29 30 29 29
40 40 39 39 37 37 35 33 31 30 27 25 24 23 24 24 22 21 17 19 18 17 20 23 23 22 23 22 22 24 26 26 28 29 31 32 31 31
41 41 40 38 36 35 33 33 31 26 25 24 23 24 23 20 18 16 17 18 17 19 20 21 21 22 23 25 27 28 29 30 31 32 34 34 35 34
41 39 39 36 34 31 29 28 27 25 24 24 21 20 19 17 17 17 18 20 22 22 23 24 25 27 26 25 26 28 30 32 34 35 37 38 38 35
38 38 36 34 33 32 31 27 26 24 23 21 20 19 19 19 19 21 22 23 25 24 25 26 28 29 27 26 27 28 29 30 31 34 37 39 37 34
37 35 34 33 35 33 33 30 26 23 23 20 20 21 22 22 22 23 24 25 26 28 29 30 29 28 27 28 28 27 28 29 30 34 37 37 35 35
36 33 33 34 34 33 32 28 27 25 24 22 22 23 23 22 21 22 22 22 23 23 24 25 27 29 29 28 28 28 28 30 30 32 34 36 37 38
34 34 35 33 33 34 30 27 27 26 24 22 23 24 23 22 23 26 28 28 28 27 28 30 30 28 27 28 30 32 33 34 36 38 39 40 42 41
33 34 32 30 32 35 32 25 28 28 29 28 27 27 28 28 27 28 28 28 30 29 30 32 33 34 35 36 38 38 40 41 43 44 44 44 46 48
35 33 31 25 27 31 32 32 28 27 27 28 28 29 29 31 32 34 35 35 35 37 36 37 38 39 41 42 44 44 46 46 48 49 50 51 52 53
35 34 34 35 32 29 26 30 30 29 31 32 32 33 34 33 33 34 35 35 35 37 39 40 42 43 44 44 44 45 44 44 46 48 48 48 52 55
37 36 35 34 35 33 32 33 34 35 35 34 35 36 36 36 35 34 33 33 33 32 34 34 35 36 39 41 43 44 45 45 45 45 45 45 43 46
39 39 38 36 35 36 36 35 35 35 35 36 36 34 32 32 33 32 31 29 29 29 32 34 35 37 37 38 39 41 44 45 46 47 48 48 47 45

GFSNE_500_spd_096.txt.gz
Wind_Speed
42 43 46 50 51 49 47 44 45 45 47 47 50 53 55 57 58 59 59 59 57 55 52 50 48 45 45 37 35 32 32 28 24 24 23 21 21 20
47 50 50 50 50 49 46 46 46 48 48 49 51 53 53 54 54 54 54 54 51 49 47 43 42 40 42 34 33 33 27 27 24 24 23 21 21 20
54 58 53 48 46 46 46 47 49 50 48 47 47 50 53 55 54 52 50 49 48 45 41 37 38 39 40 35 33 30 30 22 26 25 23 22 21 21
53 53 52 51 50 48 46 42 41 43 46 50 51 51 50 49 49 47 46 44 44 43 39 33 34 32 33 36 38 29 24 27 26 25 24 23 23 22
48 47 46 43 39 37 39 41 44 47 48 47 45 44 44 44 43 42 42 40 38 40 38 35 35 34 39 35 35 34 23 26 26 26 25 24 24 23
34 32 33 36 37 39 41 43 44 45 44 44 43 44 44 43 41 40 40 39 35 35 35 35 33 34 35 39 37 28 23 26 28 27 26 25 26 25
37 36 36 38 41 42 42 42 42 42 42 41 42 42 41 39 39 39 39 38 36 32 31 32 34 34 35 31 27 23 25 25 27 27 26 26 27 28
43 42 40 41 42 41 41 40 40 40 41 41 41 40 38 36 37 36 35 32 32 32 30 30 34 35 32 26 23 26 26 25 27 27 27 27 28 29
44 45 43 42 41 40 41 40 40 40 39 39 38 35 33 32 33 32 32 29 29 30 27 24 28 30 29 26 29 29 28 29 30 27 27 29 30 31
43 43 42 41 40 40 40 40 41 39 38 37 33 31 32 33 32 31 27 27 26 25 23 26 27 23 20 24 26 26 28 29 29 29 28 31 32 32
43 42 41 40 40 40 40 41 41 38 36 35 34 33 30 28 28 27 26 25 27 24 20 19 21 20 18 22 25 28 28 27 27 27 29 32 33 33
41 40 40 41 41 41 41 41 39 36 35 34 32 31 31 29 29 28 28 24 21 18 16 14 13 15 20 22 23 24 25 25 25 26 29 31 33 34
40 40 41 41 41 42 42 40 38 34 33 31 30 29 30 28 26 26 25 21 18 17 17 17 18 21 22 21 21 22 24 26 27 28 29 31 33 34
41 41 40 40 40 40 39 37 35 32 30 29 28 28 28 26 23 20 19 19 19 18 19 19 20 22 24 24 25 25 24 25 27 29 31 33 35 37
40 39 40 39 38 38 36 35 33 31 32 30 28 27 27 24 21 20 19 20 21 22 23 23 24 25 27 27 28 30 28 27 27 28 30 33 34 35
40 39 39 39 38 36 35 33 32 34 33 32 29 27 26 24 22 21 22 23 23 24 25 26 27 28 28 28 28 26 27 28 28 28 29 30 31 33
41 39 39 39 37 36 34 33 34 33 34 32 30 29 28 25 23 22 23 23 23 24 24 23 24 25 24 24 26 28 28 28 27 28 28 29 29 31
41 39 40 38 37 36 35 34 34 35 33 33 32 30 29 26 25 25 25 25 26 27 27 27 27 28 27 28 28 28 28 28 29 31 32 33 35 36
41 40 39 38 37 34 34 32 32 30 35 33 34 32 29 29 29 30 29 29 28 29 30 29 32 32 31 33 33 34 34 34 35 37 39 41 43 45
39 39 39 38 37 34 33 30 32 32 31 29 28 31 33 30 30 30 31 32 33 33 34 35 36 35 37 36 36 38 38 41 43 45 46 47 48 50
40 39 39 38 36 36 34 36 31 27 30 31 31 33 33 34 35 34 34 35 35 35 36 36 35 35 36 36 38 40 41 41 42 43 43 44 46 47
41 40 40 40 38 37 36 34 33 31 29 30 33 34 35 36 36 36 37 38 37 36 35 35 33 31 31 33 34 35 37 38 39 40 42 44 46 49
43 42 42 42 41 39 38 37 34 34 34 35 36 38 38 37 37 37 37 35 34 35 34 31 31 33 34 36 36 36 36 37 39 40 41 42 43 45

GFSNE_500_spd_099.txt.gz
Wind_Speed
30 32 33 35 38 42 45 47 50 50 48 47 47 49 49 51 51 52 52 51 54 56 57 54 52 48 47 44 42 41 40 40 39 37 29 25 24 26
35 37 36 40 41 45 49 50 48 47 46 46 46 48 47 45 45 50 54 56 55 53 51 49 48 44 44 41 36 36 38 39 39 34 29 25 24 25
39 42 40 44 48 53 53 50 48 47 45 43 38 39 42 47 51 52 53 50 47 45 45 43 41 39 37 39 36 37 39 38 39 32 26 24 25 25
45 46 48 51 52 54 53 50 47 41 36 37 39 43 46 48 50 48 45 46 45 44 41 42 42 38 36 39 37 35 34 34 35 30 22 26 26 25
51 51 51 52 51 46 39 34 35 38 41 41 43 45 46 45 44 45 46 46 45 43 43 41 40 40 37 37 36 37 36 37 35 26 24 26 26 25
54 53 52 48 41 37 37 37 40 41 43 43 42 41 41 43 45 45 45 44 42 43 42 40 37 36 35 33 36 34 34 35 31 22 25 27 28 26
53 48 43 41 42 41 41 39 39 41 43 44 43 43 43 43 44 44 43 40 36 36 35 35 32 31 33 32 32 30 33 31 29 24 26 28 28 28
51 47 44 44 46 45 44 42 41 42 43 43 42 41 42 42 42 41 37 35 33 33 33 31 31 31 28 24 29 34 33 29 33 32 26 27 28 28
47 48 47 45 46 47 43 42 41 41 40 39 41 42 40 40 39 37 36 35 34 33 30 29 29 27 22 21 19 23 28 25 23 24 23 26 27 28
46 46 46 46 45 44 43 41 39 39 39 38 40 40 39 40 37 36 35 32 30 30 30 30 28 28 26 19 13 15 18 21 22 27 28 30 29 29
47 45 46 44 44 43 42 40 37 38 40 40 40 40 39 39 36 34 33 32 30 31 30 29 25 23 21 20 17 15 16 18 21 23 27 29 32 31
46 46 46 44 41 43 40 38 38 39 40 40 41 40 38 37 35 33 32 31 30 30 27 25 21 19 15 12 12 14 17 21 25 28 30 31 31 32
46 44 41 41 44 42 39 38 38 40 39 39 39 37 36 35 33 32 31 30 29 27 27 25 20 17 16 15 16 16 17 18 19 21 23 26 27 29
44 43 43 43 42 41 39 37 37 37 37 37 36 34 34 33 32 31 29 27 26 24 21 20 18 18 19 18 18 19 19 20 20 21 23 26 28 29
46 44 43 43 42 41 39 37 37 36 36 35 35 33 34 34 32 30 27 25 22 20 19 19 20 21 21 21 23 24 25 24 25 26 25 25 26 28
48 47 45 44 42 41 38 37 37 36 35 35 34 34 35 33 33 29 27 25 22 21 21 21 22 22 23 24 25 26 26 27 26 25 25 26 27 27
50 47 45 44 42 40 39 38 37 35 35 35 35 35 34 33 33 30 28 25 23 22 22 21 21 22 22 23 23 24 24 24 25 27 27 26 26 27
48 46 46 42 41 40 39 37 35 34 35 36 36 36 33 32 33 32 29 27 25 24 24 24 25 25 26 26 24 25 27 27 27 27 28 28 28 28
46 47 45 44 42 40 38 36 34 35 35 36 36 34 33 34 33 33 31 28 26 27 27 27 27 28 29 30 32 32 31 31 32 33 33 33 33 34
46 46 45 43 41 38 37 36 35 35 34 35 35 37 33 31 31 33 32 33 30 29 29 31 32 32 32 33 33 36 35 35 35 36 37 38 39 41
40 41 41 40 37 37 36 36 35 37 34 35 29 29 34 34 30 30 32 32 33 34 34 34 34 33 35 37 36 35 35 35 35 36 37 38 39 39
38 38 38 38 38 37 36 37 37 35 37 35 38 35 29 33 34 34 33 33 33 34 35 36 37 35 35 34 35 34 33 34 34 34 36 36 36 37
37 40 40 39 39 38 37 36 37 37 36 37 34 35 33 32 33 34 34 36 37 37 38 37 34 34 35 34 33 34 35 37 37 36 34 34 36 37

GFSNE_500_spd_102.txt.gz
Wind_Speed
20 22 17 19 23 26 28 31 33 37 41 43 45 43 42 44 46 47 47 45 43 48 52 52 51 48 47 43 42 41 37 36 38 36 34 34 29 34
21 24 25 25 28 31 34 36 38 40 46 47 46 44 43 42 39 37 40 44 46 50 52 51 48 47 41 38 37 38 35 33 35 34 33 27 29 34
31 30 31 32 34 36 37 39 42 46 49 48 44 39 33 34 37 39 41 45 49 51 49 47 45 43 40 39 37 36 36 36 29 30 30 34 33 32
38 37 36 36 36 40 40 41 45 45 44 39 32 32 35 38 39 41 45 48 48 46 46 45 43 40 39 38 37 35 33 35 31 33 28 30 30 29
40 40 42 41 41 42 43 42 45 44 38 35 35 38 40 40 41 43 45 45 45 46 45 43 40 36 37 36 34 31 31 31 31 28 27 22 25 22
45 44 46 45 45 46 46 45 45 41 38 39 40 40 41 41 43 43 44 44 44 44 42 39 35 33 35 32 29 29 28 27 26 28 37 33 26 24
50 49 49 48 47 48 47 44 41 38 40 41 42 41 41 43 43 41 41 41 43 39 38 36 34 33 31 28 27 26 24 22 27 26 21 29 23 25
51 51 49 48 48 45 44 43 43 41 40 41 40 41 42 43 39 39 39 39 39 37 36 37 33 31 28 26 26 26 21 19 18 25 25 31 27 27
51 49 47 46 46 45 45 46 45 42 41 39 39 39 40 39 38 38 37 38 38 36 34 33 29 29 27 26 23 23 22 15 14 20 27 32 31 30
50 50 48 48 46 47 47 45 44 41 40 39 38 38 37 38 38 36 37 37 37 34 33 31 29 28 27 26 24 22 20 14 16 16 18 27 29 27
52 50 49 49 49 47 46 46 43 40 41 39 37 37 37 38 38 38 38 38 36 33 31 29 29 28 25 23 21 18 19 17 13 13 13 21 28 26
51 52 52 51 50 48 48 46 44 41 39 37 38 37 36 38 37 37 37 36 34 32 30 28 27 26 22 21 17 13 13 14 14 13 16 18 21 23
50 50 50 50 50 49 49 45 42 39 38 38 39 37 35 35 36 35 34 33 32 30 29 27 24 23 20 17 14 14 13 12 13 12 14 17 21 26
51 48 49 49 48 46 45 44 41 40 39 39 38 36 34 35 34 33 32 31 30 27 26 24 22 21 19 18 17 16 15 14 13 13 15 15 17 19
51 50 49 48 45 45 44 43 43 42 40 39 38 35 34 34 34 32 31 30 29 26 25 23 21 19 18 17 17 17 17 18 19 19 19 19 21 21
55 56 54 50 47 45 45 46 44 43 41 39 38 35 34 34 33 32 32 29 28 26 25 24 22 20 19 19 19 20 21 22 23 24 24 24 23 23
52 47 49 53 51 49 49 46 43 43 40 39 38 36 33 33 33 33 30 30 28 27 25 24 23 22 21 20 19 19 19 21 22 23 23 23 23 25
51 55 52 50 44 51 47 44 43 41 40 39 38 35 34 34 34 33 30 27 28 29 27 25 23 23 23 21 21 22 22 22 23 25 26 27 27 27
41 43 40 36 34 41 48 44 42 41 40 39 37 36 35 34 34 33 33 31 31 30 30 27 24 24 23 22 24 25 25 26 27 28 28 28 29 30
32 36 36 42 48 53 47 44 41 40 40 38 37 36 34 33 33 33 33 31 31 30 30 31 29 26 25 28 29 29 28 29 31 32 33 34 35 36
34 33 35 38 42 44 41 39 38 39 40 38 37 36 34 30 30 33 33 32 31 33 31 34 34 30 30 31 32 33 33 33 33 32 33 34 35 36
34 35 36 37 36 32 34 36 36 37 37 36 36 35 36 33 34 31 29 33 34 31 30 32 33 31 31 33 34 35 34 32 32 32 32 31 32 33
37 35 33 32 34 32 32 32 32 33 33 34 34 35 34 35 33 32 32 29 31 31 32 32 33 33 34 35 35 35 34 33 33 32 31 33 34 36

GFSNE_500_spd_105.txt.gz
Wind_Speed
33 28 23 31 31 15 12 16 19 23 26 28 33 38 41 42 44 46 46 43 40 38 42 42 45 49 49 47 45 42 39 36 36 35 34 32 31 31
28 23 24 21 18 17 21 24 27 28 30 33 38 41 43 41 42 40 35 33 37 39 42 45 48 49 47 45 43 40 37 37 35 33 31 30 28 27
33 34 29 27 28 28 30 32 32 32 35 38 38 39 41 42 39 34 34 36 40 41 45 48 49 46 44 44 42 38 36 37 31 30 26 24 21 22
39 42 42 35 36 37 39 38 36 38 39 40 40 41 41 41 38 37 37 38 38 41 44 45 43 43 44 41 38 36 34 32 28 24 22 23 24 24
47 47 48 42 46 45 42 44 45 44 43 42 42 43 41 39 39 38 38 39 39 41 42 41 41 42 40 37 34 34 31 27 24 23 16 17 17 18
48 49 49 49 51 52 50 49 47 47 44 40 40 42 42 39 40 41 41 39 38 39 38 37 40 39 38 35 34 29 28 24 23 21 16 17 19 19
50 49 50 51 53 52 51 51 48 47 44 42 41 42 43 42 40 41 39 38 37 36 37 37 38 37 37 33 30 26 25 22 24 22 17 16 19 16
57 55 53 53 53 54 52 52 49 47 44 42 43 43 43 42 38 38 37 38 36 36 36 38 37 36 34 30 27 26 25 19 20 22 22 17 17 19
59 59 58 56 55 53 52 51 48 47 46 44 44 42 41 39 39 37 37 37 36 36 36 38 38 34 31 28 26 26 24 21 20 20 19 15 16 24
58 58 59 59 58 55 53 51 48 48 47 46 43 41 41 40 39 37 35 35 36 37 37 38 37 32 30 27 25 23 21 20 20 18 17 12 18 29
58 58 58 58 58 56 54 52 50 48 46 46 44 42 42 41 39 37 35 37 36 36 36 35 34 30 29 27 23 21 20 20 19 17 14 14 16 24
57 56 57 59 57 54 53 52 50 50 47 47 46 44 40 41 38 37 35 37 35 35 33 31 30 29 28 26 22 20 18 17 18 17 16 16 15 18
60 58 58 56 55 55 52 50 50 50 50 48 46 42 40 38 39 37 36 36 33 33 31 28 26 26 26 23 20 18 15 13 13 14 15 17 17 18
57 56 54 53 53 49 46 45 46 46 46 45 44 41 39 39 40 37 36 36 32 30 28 26 25 24 24 21 19 19 18 16 16 14 14 14 14 15
50 49 50 50 48 48 44 42 42 42 45 45 43 41 40 40 39 37 36 35 31 29 28 26 25 24 22 20 20 20 19 18 18 18 17 16 17 17
49 50 48 49 51 50 52 42 39 40 42 41 42 42 41 40 39 37 36 35 31 29 28 26 25 24 24 24 22 22 22 21 21 21 21 21 21 22
48 46 47 47 51 51 47 42 40 45 36 37 39 44 43 39 39 37 36 35 32 29 28 26 25 26 26 25 23 22 23 23 23 22 23 23 25 26
45 48 48 46 48 52 50 49 46 40 37 40 47 46 43 38 39 36 36 35 32 30 28 26 24 25 27 26 23 22 22 21 21 22 23 22 22 22
42 45 45 49 47 50 49 45 45 47 42 42 46 43 40 37 37 36 36 35 33 31 31 28 28 26 26 27 24 26 24 22 22 22 23 24 23 24
41 40 39 42 48 48 51 47 46 49 43 40 43 43 38 35 36 36 36 35 34 32 34 34 32 33 29 28 29 28 26 24 25 25 27 29 30 31
37 35 30 32 45 38 37 36 35 36 41 38 39 40 37 35 35 36 35 34 33 33 33 34 34 31 31 33 31 29 29 29 29 28 29 31 33 34
35 40 38 32 37 36 35 32 31 31 32 34 37 37 36 35 35 35 34 33 29 29 34 35 33 31 34 34 34 34 31 30 31 32 33 32 31 32
34 35 37 36 35 35 34 33 28 26 25 26 28 30 32 33 34 34 35 33 32 34 32 31 35 35 32 30 31 31 32 33 33 34 34 32 32 32

GFSNE_500_spd_108.txt.gz
Wind_Speed
41 38 33 46 51 49 38 37 40 38 37 27 27 27 25 27 31 32 34 36 39 42 42 41 39 41 43 47 48 47 48 42 43 39 35 35 33 35
28 31 27 29 33 33 29 25 21 21 24 28 30 32 34 36 39 39 39 39 42 42 38 39 39 42 44 46 48 46 41 40 37 33 33 32 32 33
35 35 33 33 32 34 32 30 29 31 32 33 35 36 37 39 40 41 42 42 42 40 40 40 40 43 44 46 45 42 40 36 33 31 30 30 28 25
41 40 42 37 43 44 44 40 41 42 45 45 44 42 45 44 44 44 45 44 40 39 39 40 41 41 44 42 39 38 36 34 33 29 26 25 27 21
47 43 45 43 51 48 51 56 51 50 49 49 49 50 49 49 48 48 44 42 42 42 40 39 40 41 40 37 37 36 34 31 29 28 24 23 22 19
48 49 51 52 55 54 56 54 54 57 57 56 57 56 55 52 49 47 45 44 40 40 38 38 39 40 37 37 36 36 32 29 27 26 24 22 22 15
55 54 53 55 55 47 56 56 56 56 63 62 59 57 55 53 51 47 46 45 41 40 39 39 39 38 36 36 36 34 30 28 25 26 23 19 21 17
60 63 63 61 59 58 62 59 52 63 59 59 57 58 56 54 51 50 46 45 41 41 41 41 38 37 37 35 36 33 29 26 23 22 19 19 20 22
62 60 61 62 62 62 63 62 62 64 61 54 52 57 56 54 51 49 46 44 42 42 41 39 39 39 38 36 35 30 26 24 23 21 21 18 19 21
64 63 64 64 65 65 64 63 62 62 64 66 60 60 56 53 49 47 45 44 44 42 39 39 40 39 36 34 34 28 24 23 21 20 20 19 19 20
73 68 69 69 68 66 64 64 63 61 61 61 58 55 54 51 47 45 45 45 43 42 39 38 38 36 35 32 31 27 23 22 22 20 18 18 18 19
69 70 70 71 70 68 66 63 62 60 60 58 56 54 51 49 49 46 45 43 42 41 39 37 36 34 32 29 28 25 22 22 21 20 18 17 17 14
59 57 62 67 67 66 64 62 60 58 57 55 53 54 53 51 50 46 44 42 40 39 38 35 32 31 28 26 26 23 22 21 20 17 14 15 17 16
55 61 64 63 60 57 57 56 56 53 54 52 53 52 50 49 48 45 42 41 39 38 37 32 30 29 26 25 24 23 22 20 20 17 15 16 18 20
59 62 63 62 50 51 49 50 51 48 49 48 44 45 48 49 46 43 41 41 40 36 34 31 29 28 27 24 23 23 21 21 21 21 19 18 18 19
61 64 54 49 50 50 47 47 47 48 47 49 45 45 41 40 39 38 39 41 38 34 33 30 29 28 26 24 25 24 23 23 23 23 24 24 23 21
54 53 45 41 44 44 43 41 42 45 50 44 46 50 45 40 40 38 39 37 35 33 33 30 28 28 27 27 26 27 26 26 26 25 26 27 27 26
44 41 40 41 44 47 52 48 48 54 48 50 50 38 33 34 37 38 37 37 35 32 32 29 29 28 28 28 24 25 28 28 27 27 26 26 26 26
38 36 38 40 43 46 48 48 50 49 48 49 39 42 40 39 40 39 39 40 36 32 33 31 29 31 30 31 27 24 25 27 26 26 25 24 24 25
33 36 37 39 40 44 47 54 52 49 47 47 41 42 42 35 42 38 34 37 36 32 33 30 30 33 33 29 28 30 28 27 26 28 27 24 24 25
32 35 39 38 39 38 40 43 44 46 42 36 37 34 36 38 39 36 34 37 36 31 31 32 35 33 32 32 33 33 32 30 30 29 30 28 27 27
32 35 35 35 33 33 32 31 34 34 37 38 32 39 37 35 31 30 30 35 32 31 34 33 29 32 34 35 34 31 34 34 32 30 31 32 31 30
30 33 32 31 32 36 35 30 32 30 29 31 32 31 32 33 34 34 33 34 31 29 31 31 30 28 30 33 35 33 34 37 36 34 35 33 32 32

GFSNE_500_spd_111.txt.gz
Wind_Speed
42 40 47 46 44 46 46 45 48 56 53 56 60 54 44 41 39 39 36 34 34 38 40 41 41 46 44 41 42 44 45 47 48 48 46 41 39 35
36 34 35 38 43 40 40 40 39 43 39 46 52 51 48 49 42 37 39 43 42 43 42 44 43 44 45 42 41 42 43 45 47 44 42 40 38 34
33 38 36 37 39 45 44 42 44 45 43 43 42 41 40 42 47 49 48 45 45 46 46 46 45 43 43 40 40 40 42 43 44 41 41 39 34 32
43 43 45 45 45 42 46 50 51 51 47 48 50 46 43 46 49 53 55 55 53 52 48 47 45 44 40 41 39 38 40 41 40 39 40 37 33 30
51 51 50 51 50 49 49 49 54 59 51 51 61 52 53 57 57 58 60 58 55 55 51 46 44 45 43 40 38 38 39 41 39 37 37 36 32 28
53 55 56 55 54 54 55 60 53 46 61 55 58 66 62 61 68 63 60 60 59 57 53 45 47 47 46 41 39 38 38 38 37 37 35 33 30 27
52 55 57 58 60 63 64 62 65 67 68 55 54 62 54 58 55 62 64 61 54 57 50 49 47 45 44 43 40 40 37 37 38 36 34 31 27 22
61 63 63 64 64 64 65 66 67 68 69 67 69 54 53 61 51 49 56 52 49 50 51 48 47 45 43 43 42 41 38 37 37 34 31 29 26 24
71 69 68 68 69 69 68 70 71 71 69 70 72 72 64 60 50 51 47 46 49 47 46 42 44 45 43 43 42 40 37 36 36 32 28 26 26 24
75 75 75 76 75 73 74 73 74 76 73 72 73 70 70 67 67 66 62 62 56 47 44 43 43 42 42 43 40 37 36 36 34 30 27 25 25 26
81 82 82 82 84 81 81 80 78 78 78 74 72 70 71 67 66 62 60 56 50 48 43 40 42 43 42 41 39 34 34 34 31 27 26 25 24 25
87 87 88 86 82 75 69 71 77 74 73 67 70 60 65 62 58 55 53 52 50 49 47 42 42 40 38 37 35 33 32 31 27 26 26 25 25 22
86 77 69 66 64 64 69 69 64 64 67 67 67 63 60 57 53 53 51 51 50 49 44 41 42 38 34 33 33 31 30 28 26 26 25 24 22 20
64 55 58 66 68 68 65 57 58 58 60 59 60 58 53 51 51 52 51 50 48 46 43 41 40 36 34 32 31 29 28 25 25 26 24 21 18 17
54 52 56 61 64 65 61 54 48 50 51 53 52 51 49 48 49 47 47 46 45 45 43 40 38 37 34 29 30 27 26 25 25 26 24 22 20 19
52 51 56 57 54 49 50 47 43 36 43 48 46 49 45 45 45 43 40 40 43 42 38 38 38 37 31 28 29 25 25 25 24 24 24 24 23 21
51 52 52 50 44 41 40 38 37 35 45 43 44 43 47 47 45 47 48 47 37 35 36 39 41 35 28 28 28 25 25 25 23 23 25 25 25 25
47 46 42 37 35 31 34 37 42 46 50 48 49 54 49 48 49 52 47 47 43 39 37 41 39 31 27 28 28 26 25 24 23 24 27 28 28 28
37 32 31 31 31 32 36 39 41 43 47 36 39 45 45 48 43 35 41 37 34 36 34 30 31 30 28 29 29 26 25 26 24 23 25 29 29 29
29 26 26 27 30 32 34 37 40 42 48 42 44 49 49 35 35 36 37 38 38 37 32 29 32 31 31 31 27 26 26 28 26 26 26 26 28 28
25 24 24 26 30 31 33 34 36 40 42 46 48 46 46 41 31 34 32 38 39 37 28 30 35 36 31 29 27 28 28 26 26 30 30 29 31 30
24 23 24 25 28 31 32 33 34 35 36 38 47 41 34 37 37 36 35 39 35 33 29 29 33 31 29 29 30 30 29 28 29 31 34 32 31 31
22 22 23 25 28 28 28 31 30 29 29 28 30 35 37 36 34 33 36 33 29 27 25 26 30 28 29 30 30 29 31 32 32 30 34 34 34 34

GFSNE_500_spd_117.txt.gz
Wind_Speed
33 27 26 28 34 38 43 46 47 47 48 44 43 44 47 47 51 43 42 46 44 48 50 55 58 51 46 47 45 43 42 37 38 41 38 38 34 35
30 32 26 26 25 34 36 35 39 41 41 43 46 46 47 49 50 50 45 48 51 54 53 53 51 50 51 52 48 45 46 38 44 40 38 36 33 35
18 19 23 28 32 36 39 41 44 46 49 50 50 52 51 53 55 53 59 55 52 55 52 54 51 54 54 53 53 53 43 47 46 38 34 38 43 43
19 24 29 30 31 34 37 39 42 45 48 49 51 53 54 59 61 59 58 60 62 58 56 66 63 58 54 54 55 50 51 49 44 44 48 52 44 35
21 26 30 32 36 39 42 45 47 50 52 55 55 56 58 60 61 62 65 64 64 65 63 61 53 48 59 60 58 60 60 52 52 52 47 49 34 35
27 32 35 39 43 47 50 53 55 57 61 64 65 67 67 67 66 65 68 66 70 66 64 62 53 52 47 43 42 42 33 40 34 43 43 33 34 34
34 38 42 46 50 53 57 60 63 67 70 72 74 75 74 75 76 74 73 71 73 69 66 50 49 54 52 42 43 34 19 23 28 33 34 34 34 35
41 46 49 53 57 61 64 67 70 74 78 81 83 85 86 87 86 83 77 79 76 73 64 48 53 52 45 42 33 28 24 28 30 28 30 32 33 36
49 52 56 61 65 68 71 75 78 82 87 92 96 94 88 87 88 87 83 52 77 75 71 66 62 44 41 44 39 35 31 27 28 31 35 33 33 34
56 60 63 67 72 74 77 80 85 91 96 101 101 94 85 87 89 84 76 78 69 63 50 46 55 59 53 52 53 39 27 27 31 32 32 33 34 30
60 65 68 72 76 78 82 86 91 97 103 106 99 84 77 81 69 70 65 63 62 45 50 48 42 50 46 41 40 38 31 33 32 29 35 35 28 29
65 69 73 76 78 81 85 91 96 102 108 102 81 68 72 75 69 61 51 49 40 44 44 35 47 43 40 32 31 31 33 33 30 32 32 29 27 27
70 73 75 77 80 84 90 96 103 110 105 78 61 60 65 57 51 47 64 52 54 56 62 57 57 53 48 43 36 35 34 33 29 28 28 27 27 26
75 78 79 80 82 86 94 102 109 101 79 58 50 49 47 40 36 44 45 52 40 38 40 48 48 46 46 43 38 35 33 32 29 29 29 28 27 26
75 76 79 80 84 89 96 105 96 73 53 43 35 30 30 30 35 34 42 39 45 38 33 37 50 39 39 36 33 32 30 32 31 29 31 29 25 24
75 76 79 82 87 92 100 93 70 48 35 24 24 28 30 32 33 35 38 41 42 39 38 29 28 26 31 34 32 31 32 32 30 31 32 25 23 22
75 76 79 83 87 94 90 72 46 32 22 22 26 30 31 35 37 33 31 36 40 35 27 28 33 31 33 33 29 31 32 30 29 32 31 24 23 22
74 75 78 83 89 88 72 48 33 22 21 24 27 28 28 30 30 36 38 28 33 42 45 39 28 36 33 31 33 32 29 28 32 34 29 25 23 22
73 75 78 82 86 75 56 35 23 21 22 24 26 27 29 33 34 35 31 27 28 37 41 38 33 36 34 34 32 30 28 26 29 34 28 26 24 23
72 73 76 80 75 61 43 27 21 22 23 25 26 27 29 30 30 31 25 20 27 27 34 41 27 39 38 40 32 32 27 27 33 33 28 26 25 24
71 72 74 72 64 50 34 23 22 24 25 25 22 21 23 26 27 33 21 21 24 21 23 31 34 32 28 32 29 30 29 32 36 32 29 26 25 24
69 69 69 63 53 42 27 20 23 24 26 23 21 18 20 22 24 26 26 23 25 21 26 32 31 35 31 28 31 28 29 33 35 31 29 28 27 26
67 65 60 52 45 35 20 20 23 25 23 20 19 19 19 21 22 25 30 30 25 21 18 16 26 30 32 33 29 25 31 35 34 34 31 29 28 28

GFSNE_500_spd_120.txt.gz
Wind_Speed
28 35 36 34 31 26 30 32 30 26 26 25 28 33 36 37 39 41 41 41 41 43 45 44 50 48 52 51 47 45 43 43 48 49 50 38 33 33
29 30 35 30 26 17 17 20 23 25 27 28 31 34 38 41 43 45 46 49 49 49 49 49 49 47 53 50 52 51 50 49 50 51 48 40 35 35
39 31 21 14 13 17 22 27 27 32 34 35 37 38 41 43 45 47 49 51 52 52 54 56 55 56 57 54 53 57 57 56 53 51 52 47 39 39
14 6 10 14 19 25 28 30 33 37 41 42 44 46 49 51 54 56 57 58 58 59 58 60 61 61 61 62 59 57 53 56 52 51 50 43 43 43
10 14 18 21 25 29 33 36 39 42 46 48 50 52 55 58 60 63 63 63 64 64 64 66 67 66 65 65 64 55 49 44 47 38 40 42 45 41
17 22 25 29 32 36 40 43 46 50 53 56 59 61 62 65 67 68 69 70 71 72 73 73 73 72 70 69 66 55 57 59 57 40 41 35 35 35
25 28 32 35 39 43 47 51 55 59 62 64 66 68 70 73 74 75 78 79 79 77 75 79 74 74 70 61 64 52 49 48 40 43 31 22 19 24
32 35 39 43 48 51 54 57 61 64 68 71 73 75 76 79 81 82 85 88 88 80 78 80 85 73 57 63 60 52 46 46 41 41 35 24 27 26
38 43 47 50 52 55 59 64 66 69 72 75 78 80 81 84 87 89 92 95 97 80 82 84 84 70 71 71 62 50 48 47 38 29 21 23 29 30
44 48 51 54 58 62 65 68 71 73 75 78 82 84 86 88 93 96 100 103 97 74 64 69 64 66 63 61 42 55 49 39 38 27 23 22 27 31
49 53 57 62 66 68 69 71 73 76 80 81 84 86 89 92 98 105 102 83 73 72 70 50 41 53 52 48 52 46 44 58 46 30 30 28 31 31
57 61 66 67 68 71 72 74 76 78 80 80 84 89 93 98 104 89 66 57 50 54 43 54 41 41 44 53 54 57 49 45 36 33 32 33 31 30
62 66 68 70 71 72 75 76 78 78 79 82 85 89 96 103 86 58 49 43 37 28 40 59 54 39 49 49 36 26 22 23 30 34 36 33 32 31
63 64 66 68 70 73 75 76 76 77 78 83 87 93 96 80 53 40 32 31 31 31 36 39 52 41 40 39 34 21 19 32 36 36 36 34 32 31
64 67 69 70 73 73 73 73 73 76 79 84 89 89 72 47 32 25 23 28 29 39 31 38 39 42 45 49 38 30 32 35 38 39 38 33 33 31
66 70 70 71 70 70 70 71 72 75 79 83 82 64 41 28 24 26 27 28 31 29 26 28 40 41 41 44 41 48 35 37 37 36 35 35 33 31
66 67 67 66 67 67 67 68 71 74 78 76 62 38 25 24 24 26 27 26 29 30 28 30 38 29 23 39 43 39 36 35 35 34 34 34 31 31
66 66 66 66 65 64 64 68 71 73 72 62 40 25 24 26 27 27 28 19 18 29 26 27 25 26 29 25 31 32 31 32 34 34 32 29 28 28
67 66 64 64 62 62 64 67 69 68 62 43 25 24 26 27 27 25 24 20 26 28 23 28 33 19 23 32 30 29 30 30 31 28 28 27 27 28
67 64 63 62 61 62 65 66 65 59 46 28 22 25 25 25 26 27 28 24 25 23 24 28 34 32 27 23 32 35 32 34 29 28 26 24 27 27
64 62 60 60 61 63 65 64 60 49 31 23 24 25 24 23 23 25 23 26 22 23 24 23 29 33 32 28 25 34 35 26 31 30 25 24 28 26
59 58 59 60 61 62 62 59 52 36 23 22 24 23 21 20 20 19 21 24 26 16 21 23 24 30 33 32 34 32 30 27 30 26 26 27 28 27
56 56 57 60 61 60 58 51 40 25 20 23 23 19 18 17 18 20 21 28 20 20 20 22 21 30 39 37 30 30 34 31 28 26 29 32 30 28

GFSNE_500_spd_123.txt.gz
Wind_Speed
42 36 34 30 30 32 34 33 32 31 27 20 15 21 26 29 30 31 32 34 36 37 38 40 41 42 43 44 44 44 46 42 40 38 39 47 43 47
37 35 33 29 32 31 36 31 28 23 14 17 22 26 28 30 33 36 38 39 42 43 44 45 46 47 48 50 51 50 50 50 49 46 47 45 44 44
36 36 37 35 32 31 24 13 15 19 21 23 28 30 33 35 38 41 44 47 49 50 51 52 53 54 55 56 55 55 55 54 54 52 53 49 46 43
43 44 44 24 9 10 12 17 23 27 31 33 35 38 41 43 45 48 51 54 55 57 58 59 60 60 60 60 60 60 61 60 60 58 55 53 49 40
6 7 6 10 13 18 23 27 30 33 37 41 44 46 49 51 54 57 58 59 61 63 65 66 67 67 66 65 65 64 65 62 64 60 57 52 51 45
10 14 17 20 23 26 29 32 36 40 44 47 49 52 57 59 60 62 64 66 67 68 69 70 70 71 71 68 69 70 71 69 70 64 57 53 53 51
18 21 23 26 29 31 35 40 44 47 49 52 57 61 64 67 69 70 71 72 73 74 75 75 76 77 77 76 74 73 60 58 60 56 51 52 54 56
24 27 30 32 35 38 42 44 47 51 56 61 65 66 67 69 70 72 74 76 77 77 78 78 80 82 83 79 74 73 66 78 67 63 65 52 51 54
30 32 35 38 41 44 47 51 55 61 65 65 66 68 69 71 74 75 78 80 80 81 84 83 86 89 89 82 72 56 56 58 51 41 58 55 54 47
36 38 41 43 46 50 54 58 62 65 66 67 68 69 72 75 78 79 80 81 82 84 89 91 94 96 83 69 62 56 54 40 47 54 62 56 50 55
40 42 46 50 54 57 59 61 62 64 66 66 68 71 75 77 79 80 80 82 85 87 94 97 89 74 61 43 45 51 63 65 58 43 40 47 38 38
45 49 52 56 59 63 64 65 64 67 69 70 71 73 76 78 77 79 81 83 87 93 89 70 55 44 34 43 54 50 58 50 48 46 33 31 34 35
51 54 57 62 64 64 64 64 66 68 70 71 72 74 76 76 76 79 82 87 92 90 58 40 33 33 32 28 41 43 46 41 33 36 35 37 36 35
57 60 63 66 65 64 65 67 69 71 73 73 73 73 73 73 75 78 82 86 76 50 30 22 20 25 38 31 28 33 36 42 44 44 45 48 41 41
64 66 66 67 66 64 67 70 73 75 73 71 71 71 71 72 74 77 79 69 42 20 17 18 23 19 22 33 37 29 18 28 35 33 38 43 42 38
68 68 68 67 66 67 70 74 77 78 75 72 69 69 71 71 73 71 57 38 24 20 22 23 23 21 21 20 28 37 28 28 33 34 43 39 38 33
67 68 67 66 67 70 74 77 76 73 70 68 67 68 69 70 67 51 33 25 20 23 21 21 22 23 18 24 26 31 27 26 33 23 30 33 34 31
67 66 67 69 70 72 74 72 70 68 65 65 67 67 66 64 51 34 26 22 24 22 19 24 24 18 15 23 29 27 28 33 38 30 26 30 30 28
67 68 71 73 74 74 73 69 65 64 63 65 66 65 63 53 34 27 26 24 22 25 15 17 26 21 16 14 19 17 33 36 36 33 32 30 24 24
70 70 72 76 77 72 66 62 59 60 62 63 62 60 53 37 28 26 25 24 20 24 20 20 21 20 19 15 14 19 34 30 29 30 27 22 24 23
69 70 69 66 65 62 59 57 57 58 59 58 56 51 37 27 26 25 22 22 19 23 21 16 18 20 19 21 11 18 29 30 27 21 20 25 24 20
68 66 65 63 59 57 54 54 57 56 54 51 46 36 27 24 22 20 18 17 17 19 20 16 19 23 25 25 17 17 27 25 26 24 27 23 23 20
62 59 58 56 55 52 52 52 53 51 48 42 33 24 22 20 17 16 16 14 14 19 20 16 19 20 22 23 21 22 21 30 30 25 24 25 22 21

GFSNE_500_spd_126.txt.gz
Wind_Speed
51 51 49 54 46 42 41 37 33 31 33 32 30 25 16 18 17 21 26 28 29 31 34 35 36 38 40 41 42 43 44 44 44 45 43 41 39 38
47 46 45 47 42 38 35 33 32 31 34 27 21 14 19 21 25 30 31 34 36 37 39 41 43 45 47 49 50 50 51 50 51 51 50 48 47 45
40 39 40 34 36 33 35 36 31 34 17 11 12 21 26 29 32 35 37 40 42 45 48 51 51 51 52 54 56 57 59 59 58 56 55 54 52 51
33 31 35 35 37 36 41 12 11 13 16 21 23 26 29 33 36 38 42 45 48 51 53 54 56 59 59 60 61 62 63 64 61 60 60 58 56 55
25 27 18 12 19 20 7 10 17 24 26 27 31 34 36 38 40 44 48 52 55 56 58 60 61 63 64 66 67 68 68 67 66 67 65 65 63 62
5 2 5 10 16 19 21 24 27 30 32 36 39 39 42 46 51 55 54 55 56 59 60 61 64 66 68 68 69 69 70 71 71 71 72 72 70 66
13 15 18 19 22 24 27 29 31 35 39 41 43 46 50 55 58 56 57 56 56 59 62 65 68 69 70 70 70 70 71 74 76 77 77 76 73 61
18 20 22 25 27 29 31 33 37 40 42 46 50 52 55 58 59 58 60 61 62 65 66 66 68 69 70 71 73 75 77 79 80 81 79 76 65 67
24 26 28 30 32 33 36 39 43 46 49 52 55 58 60 62 63 64 66 67 68 69 70 71 71 72 73 75 78 80 83 86 85 80 76 71 64 62
31 33 35 36 37 38 41 45 49 52 55 58 60 61 63 65 66 68 69 71 71 72 72 73 74 75 76 79 83 88 91 89 82 67 56 50 48 51
36 39 41 42 44 45 48 50 53 57 60 62 64 65 65 68 69 70 73 75 75 74 74 75 75 75 77 82 89 89 75 54 32 36 38 36 33 36
42 43 44 47 50 53 54 56 58 61 63 64 65 66 67 69 71 73 75 76 77 75 73 73 74 78 80 85 76 56 40 29 32 44 53 42 32 33
47 48 50 53 55 58 60 62 64 67 67 68 69 69 71 74 76 77 78 76 74 71 71 72 75 81 82 65 37 32 30 32 27 41 42 36 38 35
51 53 56 59 61 64 66 68 69 71 72 74 73 72 74 76 77 78 76 73 70 68 71 76 77 71 49 23 20 23 17 20 37 28 26 41 38 35
57 59 61 63 65 67 68 70 73 75 77 75 76 78 80 81 78 75 72 67 67 68 71 73 61 39 24 19 12 17 22 16 18 31 26 31 27 23
60 62 63 64 67 70 73 75 76 76 77 78 79 81 81 78 73 68 64 63 64 65 64 53 36 24 20 14 12 9 17 20 17 26 32 29 29 25
63 64 65 68 70 71 72 72 73 74 74 75 77 73 69 66 64 62 61 60 60 56 47 30 25 21 19 16 12 11 16 16 10 11 21 23 29 29
61 63 66 68 69 70 69 69 70 70 70 71 67 64 59 58 58 58 56 52 46 36 27 21 17 15 16 13 15 15 16 14 15 12 22 23 21 23
63 66 68 68 69 69 68 68 69 70 66 60 56 57 55 53 54 54 48 37 29 24 21 21 17 17 17 13 15 14 17 18 19 21 21 18 23 21
64 64 65 65 67 68 69 68 64 60 57 55 51 52 51 50 48 45 34 25 21 16 15 18 14 15 22 15 10 15 17 27 31 33 25 23 22 20
61 62 62 64 68 66 64 62 58 55 52 52 49 48 48 44 39 31 23 19 15 12 11 16 16 17 19 17 10 11 21 29 31 33 34 26 23 22
58 60 63 64 60 61 60 56 52 51 51 47 45 45 43 37 27 20 16 14 12 10 10 12 16 16 18 17 12 5 16 28 36 29 28 26 24 20
58 61 60 58 57 55 52 48 47 48 45 42 42 39 34 24 18 14 12 12 12 14 12 11 16 16 19 20 17 11 12 26 35 30 25 25 22 20

GFSNE_500_spd_129.txt.gz
Wind_Speed
46 49 48 49 49 49 47 43 48 43 42 36 32 33 35 33 32 31 28 17 19 27 30 32 34 36 35 36 37 40 43 45 46 47 48 49 49 48
41 45 45 44 46 45 39 41 43 42 42 35 33 33 32 26 19 14 17 23 29 32 36 38 39 40 42 44 45 47 48 50 52 52 53 54 54 55
35 39 40 35 35 42 42 40 36 38 43 37 29 26 15 19 25 29 31 33 35 38 40 42 44 46 49 51 52 53 54 56 58 59 60 60 61 61
34 24 26 25 35 35 32 39 37 36 16 14 20 18 25 32 33 35 37 39 40 41 44 49 53 54 54 54 55 57 59 61 62 65 65 66 66 65
32 29 18 32 34 33 35 41 37 25 13 19 28 32 34 35 36 39 40 41 44 48 53 54 54 56 57 58 58 61 63 65 67 68 70 70 70 69
24 26 25 21 7 4 9 14 18 22 26 29 32 34 36 38 40 41 44 47 49 53 54 54 55 57 60 61 63 65 66 68 69 71 71 70 72 71
16 9 5 12 19 20 22 24 26 28 31 33 34 36 38 40 43 46 48 49 51 55 58 60 62 62 64 67 69 69 69 69 68 69 69 69 71 73
5 10 17 20 23 26 27 29 32 32 34 35 38 40 43 45 47 50 52 53 54 58 59 60 64 64 67 69 71 71 71 70 69 69 69 71 72 75
17 20 23 26 28 31 34 35 36 38 40 41 44 47 49 52 53 54 56 58 59 62 64 63 66 67 69 70 71 72 72 72 71 71 72 75 78 81
25 27 30 33 35 37 39 41 42 44 47 49 51 54 56 57 59 60 62 63 65 68 70 68 71 72 74 75 76 75 73 70 70 72 76 81 85 83
32 34 36 38 40 42 44 45 48 50 53 55 58 60 61 63 65 67 67 69 70 72 75 72 74 76 78 77 76 72 70 70 72 75 80 80 66 46
38 40 43 44 46 47 48 50 52 54 57 60 62 64 66 67 69 71 72 73 73 73 78 77 83 83 77 73 70 67 68 70 73 70 61 43 32 26
44 46 47 48 50 51 53 55 57 59 62 63 65 65 67 69 68 68 70 71 73 75 78 79 77 72 67 64 66 68 69 68 59 42 23 26 27 18
47 49 51 53 55 57 59 60 62 63 63 63 63 65 66 69 71 71 74 74 77 76 71 68 63 62 61 60 62 61 54 44 29 23 16 16 22 26
52 54 55 57 58 59 61 62 63 64 64 66 68 69 71 72 72 70 72 72 71 67 61 58 58 56 57 54 46 37 27 22 13 12 18 13 16 26
53 55 57 59 61 63 64 65 66 67 67 69 69 70 70 70 70 69 70 68 62 58 55 54 53 53 46 39 28 21 20 18 15 16 13 19 14 16
58 60 61 63 63 64 65 66 68 69 70 70 70 70 69 69 69 65 60 55 55 54 51 51 46 41 31 24 19 17 14 12 19 15 16 17 18 22
64 65 66 66 66 65 66 66 66 65 66 67 68 67 65 62 58 55 52 50 48 50 45 40 33 24 19 15 18 17 14 11 13 9 13 18 19 19
71 70 68 67 66 65 65 63 63 64 65 65 62 62 58 54 52 50 48 43 42 42 35 26 21 17 15 15 16 19 16 14 14 10 8 16 19 20
71 67 64 63 62 60 61 61 62 64 62 60 57 53 50 47 46 44 41 38 34 30 23 18 14 15 14 14 16 14 14 17 17 14 13 22 22 24
63 60 59 57 56 57 56 58 59 56 54 52 49 46 44 42 39 38 35 29 23 18 15 12 15 18 15 15 17 13 11 17 21 22 21 23 21 21
55 53 51 50 50 51 53 51 50 52 50 45 43 42 39 37 35 32 26 19 14 14 13 14 16 19 14 12 17 12 8 18 19 28 25 25 20 19
46 44 44 46 49 50 50 50 48 44 42 40 39 37 34 33 29 24 17 12 13 15 16 18 18 16 14 13 15 10 5 17 22 27 29 23 18 20

GFSNE_500_spd_132.txt.gz
Wind_Speed
60 58 57 56 56 52 52 50 49 47 47 45 49 50 45 43 39 36 36 35 32 33 31 25 26 32 35 37 37 37 38 39 42 44 47 48 47 47
48 47 48 47 48 51 46 46 43 42 43 44 39 34 40 45 41 37 30 27 21 21 23 29 33 36 39 41 41 41 43 45 48 51 52 53 54 54
44 43 43 43 43 40 42 44 38 35 45 43 43 41 43 48 40 31 27 26 30 33 37 39 40 42 43 44 46 49 52 55 56 56 56 57 59 60
37 38 40 39 40 38 43 34 32 40 43 42 44 38 41 37 26 23 30 35 38 40 41 43 46 47 47 49 53 55 56 56 57 58 59 60 62 63
37 34 35 36 34 28 29 29 36 34 38 38 46 31 32 22 30 35 40 42 43 44 46 47 49 51 53 55 54 55 56 57 58 60 62 64 66 68
29 29 30 34 31 27 31 24 22 17 16 16 22 22 29 36 38 41 42 43 44 45 46 48 50 51 53 54 55 55 57 59 61 62 64 66 67 68
26 26 31 21 32 25 14 12 18 22 26 27 30 35 38 40 41 43 43 43 45 48 49 51 53 54 55 56 57 58 60 62 63 64 65 66 68 69
17 7 4 7 9 15 20 25 28 30 32 36 38 39 41 44 45 46 47 49 50 54 54 55 58 59 60 61 62 63 65 66 68 70 71 71 72 73
11 11 13 17 21 24 27 31 34 37 40 41 44 46 48 49 51 53 55 56 57 60 61 60 63 63 65 67 68 69 70 72 73 74 76 77 78 77
19 22 24 27 30 33 36 39 42 44 46 48 50 52 53 55 57 58 60 60 61 64 67 66 69 67 66 67 69 71 73 76 78 80 82 80 78 75
26 29 31 34 37 40 43 45 48 50 51 53 55 57 58 60 61 62 63 65 66 67 71 67 64 64 68 70 73 76 77 78 77 75 71 69 67 67
33 35 37 39 41 43 46 48 51 53 55 57 59 61 62 64 65 65 66 66 64 63 69 68 71 72 70 76 79 77 74 74 71 65 61 60 63 66
37 38 40 42 44 46 48 50 52 54 57 58 61 63 64 65 65 66 68 69 70 71 74 73 73 74 74 72 76 73 64 61 58 58 58 58 58 59
40 42 44 46 47 49 51 53 55 58 60 62 64 66 67 69 70 72 74 75 76 74 73 72 71 72 71 68 62 60 55 54 53 51 48 45 37 26
44 46 48 50 52 55 57 59 62 64 66 68 70 71 71 72 73 74 72 70 71 71 70 69 67 62 59 56 52 51 47 45 41 35 28 23 15 13
49 52 54 57 59 61 63 66 67 68 69 70 69 70 69 68 68 66 66 68 68 67 61 58 55 53 51 48 46 41 34 30 27 18 14 10 16 14
54 57 60 63 66 68 70 70 70 69 68 67 66 64 63 62 64 65 64 62 62 57 54 50 47 45 42 39 37 28 23 20 16 15 15 13 11 12
61 64 67 70 71 72 72 71 69 66 64 62 60 60 60 61 60 60 59 56 51 49 48 45 41 36 32 28 24 19 16 16 16 13 16 16 13 17
67 70 73 74 74 73 68 63 61 60 57 56 53 54 56 54 53 53 51 48 47 44 40 36 31 26 22 18 17 16 16 17 16 13 14 17 18 18
72 74 75 73 67 59 55 53 51 50 48 49 52 51 52 51 49 47 46 42 38 35 33 28 22 18 15 17 15 13 16 17 16 16 11 19 20 19
72 71 65 53 45 42 42 42 44 46 48 49 49 50 47 45 44 41 38 35 32 28 24 20 16 14 16 16 14 13 14 16 19 17 13 19 23 25
61 50 41 37 37 38 41 43 45 46 47 47 46 44 42 40 37 35 33 30 25 21 18 15 14 15 15 16 11 11 13 14 22 16 20 28 28 27
41 37 38 38 38 39 42 43 44 45 44 41 41 40 39 35 33 32 29 23 19 16 14 14 15 16 14 14 11 13 13 11 20 21 27 26 26 27

GFSNE_500_spd_138.txt.gz
Wind_Speed
59 58 60 64 57 56 57 48 49 49 50 47 48 52 52 54 56 58 57 53 49 48 50 49 51 53 49 49 51 48 45 41 42 34 31 35 37 38
56 57 59 62 62 62 68 68 67 66 61 58 56 56 57 55 51 51 49 42 42 46 45 44 47 44 45 46 47 43 40 33 30 34 37 39 40 41
47 48 51 53 58 62 63 64 64 62 58 57 58 54 54 54 52 50 46 47 47 45 49 42 44 43 44 48 37 33 30 32 41 41 43 42 44 45
31 35 40 45 47 47 49 49 47 48 48 48 51 55 54 53 52 51 48 41 44 43 45 48 48 49 52 45 35 36 41 43 43 44 45 47 49 50
21 25 28 32 35 36 38 41 42 45 45 45 45 47 47 50 44 41 44 45 53 48 50 46 47 45 36 34 38 42 47 47 48 48 50 51 51 52
16 18 20 24 28 32 33 33 35 35 35 36 34 31 33 35 38 34 35 32 32 40 44 35 37 41 44 46 47 51 53 53 54 54 54 54 55 56
8 12 15 19 23 25 29 31 30 27 25 29 33 27 20 23 30 33 36 39 40 39 39 42 46 49 50 51 54 56 58 59 59 60 61 63 64 64
11 10 12 10 1 5 5 4 8 11 15 19 24 29 34 36 39 42 44 44 47 49 48 55 55 58 60 62 63 65 66 68 68 68 68 68 68 66
14 15 14 12 9 13 16 18 23 29 30 32 35 38 41 43 45 49 50 52 54 56 55 57 60 61 64 66 67 69 71 72 72 71 70 71 72 74
17 17 18 19 21 23 25 27 30 33 36 39 42 45 47 49 52 54 55 57 59 62 61 60 65 65 67 69 70 72 73 75 75 76 76 76 75 73
25 26 27 28 29 31 33 35 37 39 42 44 47 49 52 54 56 59 60 62 63 68 68 66 68 69 72 75 76 76 76 76 76 77 77 77 78 79
30 31 32 33 35 37 39 41 43 45 47 49 51 53 56 59 61 64 66 68 70 72 75 74 77 79 77 77 78 80 80 82 82 82 81 81 81 81
36 37 37 38 39 40 42 44 45 48 51 54 57 60 63 66 69 71 73 75 78 80 83 84 84 86 86 85 85 87 87 87 88 88 88 86 85 81
39 40 41 42 43 45 46 48 51 54 57 61 63 62 66 70 74 77 79 81 81 82 81 82 81 80 79 75 74 74 75 76 75 74 73 72 65 60
44 45 46 47 49 50 51 53 54 56 59 60 65 68 72 74 75 75 76 74 72 68 66 61 58 56 56 56 55 58 57 59 57 54 49 45 46 45
47 46 47 49 50 51 51 53 54 56 61 65 67 69 69 69 67 60 52 48 47 49 50 48 48 49 49 51 49 47 47 45 44 42 42 40 35 33
44 46 48 50 48 46 48 52 58 61 64 66 65 62 56 49 47 46 46 46 46 46 47 48 48 46 44 41 41 41 38 36 35 34 32 29 25 21
44 44 44 44 45 50 54 54 58 60 60 60 55 48 45 44 46 48 48 47 46 45 43 40 40 41 40 38 33 32 30 26 26 23 21 18 13 12
47 45 44 48 51 53 55 57 59 58 56 48 43 42 44 45 46 46 44 41 40 40 41 38 37 36 33 31 30 25 22 19 18 16 15 11 9 11
45 46 51 51 51 53 54 56 56 53 45 40 40 42 42 41 41 40 40 40 40 40 38 35 32 30 28 25 23 18 16 14 13 12 8 8 6 10
46 49 50 50 51 52 53 55 53 45 39 39 41 41 40 39 39 39 40 39 38 37 36 34 29 26 23 20 18 15 12 12 10 7 8 6 7 9
48 49 49 48 50 51 52 51 44 39 37 38 40 40 38 38 37 38 38 37 37 36 34 30 27 22 19 16 14 13 9 9 7 6 8 8 10 14
48 47 47 48 49 48 47 43 38 36 36 39 40 39 38 37 36 37 38 37 38 38 32 27 22 18 14 11 11 10 9 8 6 8 9 10 16 22

GFSNE_500_spd_144.txt.gz
Wind_Speed
15 18 23 29 31 35 42 47 48 50 53 56 55 50 58 63 54 60 51 41 43 51 53 44 42 39 45 44 46 50 51 50 49 49 44 48 47 45
17 17 19 26 32 35 37 40 46 51 53 51 50 58 53 43 49 55 55 55 54 58 63 57 48 47 49 51 52 49 49 53 51 47 51 45 44 45
14 11 12 18 26 30 32 36 39 45 48 50 53 53 48 55 60 65 58 58 51 49 49 50 51 52 53 52 49 48 47 50 53 49 49 50 48 47
18 15 13 12 14 18 24 28 31 34 36 37 41 49 47 42 42 44 46 46 44 44 46 46 46 48 52 52 53 49 46 49 49 48 53 55 56 53
18 18 18 16 14 15 17 20 23 28 33 35 36 37 39 41 42 42 43 42 41 36 39 40 42 41 41 45 46 48 45 49 53 56 53 55 53 57
19 18 19 19 16 16 16 16 18 19 22 26 30 32 35 37 40 41 42 41 34 36 39 38 33 32 38 38 37 38 40 42 41 41 40 41 44 43
20 19 18 18 14 12 11 11 15 17 19 23 26 30 33 36 40 36 38 38 37 44 36 40 42 44 45 46 47 49 50 51 52 52 53 53 54 56
22 21 20 20 19 19 17 16 14 15 13 13 15 18 22 24 26 33 33 37 40 42 45 48 49 50 52 53 54 55 56 57 57 59 59 61 61 63
26 25 24 24 23 22 22 23 24 25 26 27 28 30 32 34 36 39 42 44 46 48 49 51 53 55 57 58 59 60 61 62 63 64 64 65 66 67
26 27 27 26 27 27 27 28 29 29 31 32 33 34 36 38 40 42 45 46 47 48 50 52 56 60 64 66 67 69 70 71 72 73 73 74 75 76
28 27 26 25 27 28 29 30 32 33 34 35 35 36 37 39 42 44 47 49 51 54 57 60 63 61 65 69 71 73 75 77 79 81 83 85 86 86
34 31 30 32 33 34 35 34 35 37 38 38 39 40 42 44 46 49 51 52 52 53 54 57 60 63 65 67 72 76 78 81 84 87 89 91 93 93
39 38 37 36 38 39 41 40 39 39 39 39 41 42 43 44 43 44 46 49 51 53 56 59 62 65 69 70 54 55 54 55 56 56 56 55 53 58
45 45 44 43 45 46 46 44 41 38 38 38 38 39 40 43 45 46 47 48 51 55 58 60 63 61 55 50 49 50 50 48 49 47 47 48 48 46
54 46 45 45 49 51 49 44 40 39 39 38 37 39 41 44 46 48 49 51 54 54 57 56 52 50 49 46 44 46 45 48 47 45 45 44 42 41
53 45 43 46 49 52 43 39 40 38 37 36 39 41 42 44 47 49 51 53 54 54 53 48 45 43 44 44 42 43 44 43 42 41 39 39 35 33
53 45 43 45 48 44 40 40 40 38 37 39 41 42 43 46 48 48 49 50 50 47 46 44 42 41 41 41 41 40 39 38 37 33 33 32 28 25
53 46 45 46 45 42 42 41 40 38 38 39 42 43 45 47 47 47 46 45 44 43 41 40 40 40 40 40 38 37 36 35 33 30 26 25 23 16
49 46 45 44 42 41 43 41 39 38 39 40 43 44 45 46 46 45 44 41 39 40 39 38 38 39 39 38 37 35 34 32 28 25 21 18 17 14
48 44 44 42 42 43 42 40 37 38 40 42 43 44 45 45 44 42 39 39 37 37 37 36 37 38 38 37 36 35 29 27 24 21 17 14 11 7
44 43 41 41 43 42 39 37 38 40 42 43 43 42 43 43 43 41 38 37 37 35 35 35 35 37 37 36 34 32 27 24 21 18 13 9 7 8
42 40 41 41 40 37 36 38 39 40 42 43 45 44 41 42 41 40 37 37 38 36 35 36 38 38 37 35 31 27 23 20 18 13 9 10 9 10
40 40 40 37 36 35 36 39 41 40 40 43 44 44 41 41 41 39 39 40 40 39 36 37 39 39 38 32 27 21 16 15 12 8 9 10 11 12

GFSNE_500_spd_147.txt.gz
Wind_Speed
33 31 25 20 16 15 16 19 25 31 37 39 40 45 51 51 53 54 53 57 61 60 55 47 46 48 49 49 50 57 45 45 42 49 51 53 54 50
28 29 27 22 17 17 21 23 24 26 28 33 40 39 40 43 44 47 47 45 47 47 52 56 53 53 48 46 50 48 48 45 53 55 55 54 51 50
26 26 23 20 18 17 17 18 23 25 28 30 33 38 40 42 45 46 47 49 48 46 48 52 46 46 43 42 45 46 48 50 58 58 56 54 49 45
25 25 25 24 17 14 14 15 19 24 28 32 33 33 34 35 37 41 47 47 46 45 41 41 40 42 46 46 48 49 50 51 54 55 55 55 50 47
23 23 23 23 22 21 16 13 13 15 17 19 23 28 32 32 33 33 35 38 40 41 40 40 39 39 42 40 39 41 39 42 44 47 50 54 45 45
28 27 24 22 20 19 17 14 16 16 16 17 17 17 20 23 26 29 30 32 32 34 33 32 34 38 42 44 42 40 45 43 44 43 41 43 45 43
29 28 27 26 24 21 21 19 18 17 18 19 18 17 19 22 25 26 27 30 31 29 30 33 37 39 41 43 44 47 49 50 50 51 51 51 52 52
29 28 27 28 27 26 25 23 22 23 23 23 23 24 25 26 27 30 31 32 32 35 38 41 42 44 46 48 49 48 49 51 53 54 55 55 56 56
31 30 30 28 26 26 27 27 27 27 27 28 28 29 30 31 32 34 35 36 38 40 41 43 45 47 49 50 52 55 57 58 58 57 58 59 61 63
32 32 32 33 32 31 30 30 30 30 31 31 31 32 33 34 34 36 37 38 40 42 43 45 48 51 53 55 56 57 57 58 59 60 62 65 68 70
37 37 36 36 37 37 35 34 34 36 37 36 35 35 36 37 38 39 40 41 42 43 45 46 48 49 53 54 56 59 61 61 62 66 70 73 74 75
41 41 41 42 43 42 42 42 42 40 42 41 40 37 36 35 36 36 37 38 39 41 43 46 48 50 51 56 58 58 60 64 66 69 67 64 64 63
45 44 44 45 45 48 46 42 44 46 46 46 39 38 39 38 37 37 37 38 40 42 44 48 52 55 56 57 56 60 61 58 57 53 51 49 50 51
48 50 46 48 48 50 48 42 44 45 47 45 38 39 39 39 38 37 39 40 42 45 47 51 53 55 57 57 56 54 54 50 48 46 46 47 48 47
49 50 52 51 51 56 48 43 44 45 45 40 39 39 39 38 38 39 40 41 43 46 49 53 54 53 54 53 50 47 44 45 44 42 43 43 43 41
52 50 50 52 57 59 51 47 46 46 43 41 41 40 39 39 39 40 42 43 44 47 50 53 52 50 49 49 46 44 44 40 41 40 39 40 39 36
53 50 55 57 59 55 52 47 45 44 42 41 41 40 40 38 39 40 42 44 46 49 51 50 49 47 46 44 43 43 41 39 37 36 36 36 33 29
58 56 59 59 52 54 55 48 45 41 41 41 42 40 37 38 39 39 41 43 46 48 48 47 45 42 42 45 42 41 39 37 35 34 34 31 29 25
56 58 60 55 52 53 52 47 44 40 43 43 41 36 36 39 40 40 41 44 46 47 47 46 41 38 36 36 41 40 38 37 35 34 30 26 24 23
57 57 55 52 51 51 50 46 43 44 44 44 38 37 36 37 39 41 41 44 45 46 47 45 41 40 39 38 41 42 37 35 33 31 28 25 21 19
56 54 52 52 52 51 49 43 45 43 43 40 37 37 39 39 38 39 40 43 44 45 44 43 42 42 40 39 40 42 38 33 30 27 25 21 17 12
56 53 54 52 47 45 43 43 45 43 40 38 38 36 37 38 37 39 41 43 44 43 42 39 39 37 36 37 38 40 36 31 26 24 22 17 11 10
54 52 49 45 45 42 44 44 43 40 38 35 37 37 36 35 36 38 41 43 43 42 39 36 37 36 37 38 37 36 32 27 24 21 17 11 11 11

GFSNE_500_spd_150.txt.gz
Wind_Speed
27 28 29 31 31 29 22 14 10 9 13 19 24 27 27 31 36 39 44 40 49 44 46 46 47 42 45 49 53 55 55 54 45 51 48 44 48 46
28 27 27 30 29 28 25 18 11 12 15 19 23 26 28 30 33 36 39 38 40 41 43 43 43 42 39 39 43 44 45 44 46 47 49 49 49 50
29 30 30 29 26 27 26 21 18 14 14 18 21 25 28 30 32 33 35 38 40 42 42 42 44 46 42 41 42 43 44 44 47 51 52 51 55 56
30 31 30 30 28 26 23 22 19 18 17 16 16 20 26 30 30 30 31 33 36 38 41 44 44 43 43 43 42 43 46 47 50 48 47 50 52 50
28 29 29 28 28 27 25 21 19 18 18 16 17 17 18 20 25 29 29 31 32 32 34 35 36 39 39 40 41 41 41 39 39 43 42 40 35 37
26 27 28 28 27 27 26 25 24 22 20 19 20 19 18 17 17 19 22 24 25 27 31 32 32 34 33 34 34 36 37 41 41 40 43 45 44 45
24 27 28 30 28 27 27 26 26 26 26 25 25 23 22 22 23 23 23 23 25 27 28 26 28 33 34 36 38 40 41 43 45 47 48 48 47 48
29 30 30 31 32 32 30 27 26 26 27 27 28 28 28 28 28 28 29 30 31 33 34 34 36 38 40 41 43 44 45 46 48 50 51 52 56 58
31 33 34 35 35 35 35 35 33 32 31 29 29 30 30 32 33 33 34 34 34 35 36 37 38 40 42 44 46 47 48 49 50 51 53 55 57 58
36 38 39 38 38 38 37 38 40 41 39 38 36 34 34 34 34 34 35 37 38 38 39 40 40 41 40 41 42 44 46 49 52 55 57 59 58 57
42 41 43 42 40 39 42 39 41 43 44 41 41 40 38 37 35 34 35 35 36 36 37 37 38 38 40 41 43 46 50 54 57 59 61 61 61 62
46 46 45 46 47 45 43 43 42 43 45 44 42 43 42 42 37 36 36 36 37 36 35 36 38 39 41 44 47 50 54 57 59 60 60 61 62 60
53 51 50 47 48 48 47 47 46 47 46 45 42 45 45 43 38 37 37 37 37 35 35 37 39 40 42 43 49 53 56 58 59 59 58 55 51 48
54 53 52 52 51 48 47 47 48 51 49 48 43 45 46 45 41 39 38 37 36 37 37 38 39 41 42 45 50 53 56 58 58 54 48 46 46 45
53 53 53 52 49 50 51 48 51 52 49 48 46 45 44 44 42 41 40 39 39 38 39 39 41 41 44 47 50 52 53 50 50 45 44 44 43 41
54 53 52 49 53 54 52 53 54 52 50 46 46 45 45 42 42 41 41 41 40 40 40 39 39 41 43 47 50 51 51 45 43 42 42 42 41 38
57 56 56 57 53 54 54 54 51 52 48 44 45 46 46 44 41 42 42 42 40 40 41 40 40 41 44 47 48 48 43 41 41 40 39 40 38 36
47 47 49 52 52 52 51 49 48 48 43 45 48 47 47 44 43 43 42 39 37 39 39 38 39 41 44 48 49 46 42 41 42 42 39 37 36 33
46 49 50 51 51 50 49 48 46 43 44 48 49 47 46 44 42 43 39 35 36 37 37 37 38 40 41 42 45 45 39 38 40 42 40 37 33 29
49 49 50 51 52 50 48 47 46 45 49 51 51 48 44 44 44 39 35 35 36 37 37 37 38 40 41 39 37 39 36 35 36 39 37 32 28 23
50 50 51 52 52 51 46 47 47 49 51 51 46 44 43 44 43 36 35 35 36 35 36 38 39 40 39 36 35 36 37 35 33 35 32 27 24 22
49 49 49 49 49 48 48 48 47 47 47 46 44 42 43 42 39 35 35 33 33 34 36 38 39 39 37 33 33 34 36 35 31 32 28 27 23 19
44 44 43 44 44 45 44 42 42 43 45 44 43 42 40 37 35 33 32 32 32 34 35 36 38 36 33 30 31 33 34 31 29 28 27 23 17 9

GFSNE_500_spd_153.txt.gz
Wind_Speed
21 23 25 27 29 30 31 30 32 29 25 18 13 13 14 17 22 17 27 31 32 29 30 33 40 46 41 40 38 39 39 39 41 45 45 43 47 48
24 26 27 29 29 29 28 29 26 25 25 24 22 21 20 21 23 25 27 27 29 32 34 36 38 39 39 39 39 39 36 36 37 39 41 44 46 47
25 28 28 28 29 27 26 25 24 24 22 20 17 17 19 22 26 29 28 28 29 31 34 36 38 39 41 41 40 40 42 42 42 43 44 48 49 52
28 27 25 26 27 26 25 25 24 23 22 21 20 20 20 19 18 19 23 27 28 29 31 32 34 37 38 39 40 42 42 42 44 44 46 47 49 47
24 24 24 24 24 24 25 25 24 24 23 21 21 21 21 22 22 22 21 20 23 27 30 31 31 33 34 35 35 37 39 40 40 39 37 37 40 41
23 25 24 25 26 26 26 26 26 26 25 24 24 24 25 24 24 24 23 22 23 23 23 24 25 26 28 33 35 32 31 33 35 36 38 39 40 43
27 27 27 29 29 29 29 29 30 30 29 29 27 25 25 27 27 28 28 28 29 30 30 32 32 33 32 32 33 37 38 39 41 42 43 44 46 47
32 32 31 31 32 33 34 34 33 33 34 34 35 32 31 30 28 30 31 31 32 34 35 36 37 39 39 39 39 40 40 41 43 45 46 47 47 49
36 35 36 36 34 34 35 35 37 38 37 35 36 37 36 35 35 34 33 33 35 35 37 39 39 40 40 41 42 43 42 41 40 41 43 44 46 48
41 44 42 41 42 41 41 41 39 39 39 39 38 38 37 39 38 38 38 38 36 38 38 38 39 40 40 40 40 39 38 39 40 41 44 46 50 53
46 48 48 48 46 45 45 45 44 43 43 41 42 40 41 42 40 41 43 42 40 39 39 38 39 39 40 39 39 39 40 40 42 45 48 51 54 59
53 53 52 51 51 48 48 48 47 46 45 44 44 43 45 43 43 44 44 44 44 40 40 40 39 38 39 42 41 41 42 43 45 47 49 54 59 62
55 55 56 54 54 52 50 49 48 48 47 46 46 46 47 43 45 44 42 44 45 43 41 41 41 39 40 42 44 44 44 45 46 48 52 56 59 60
56 57 57 56 56 55 52 51 51 49 46 48 48 48 50 46 46 45 43 44 44 43 43 42 41 41 42 42 43 46 46 46 47 49 53 56 59 59
60 60 56 53 55 54 55 54 53 52 52 50 47 49 50 48 45 44 42 43 45 43 42 41 41 43 43 42 43 44 44 46 47 50 54 56 56 53
52 55 59 59 57 54 55 60 60 55 51 48 49 47 47 46 43 42 42 45 44 41 41 41 42 43 42 43 43 44 44 45 47 51 53 53 53 48
54 49 48 53 57 56 50 48 49 49 48 47 46 44 44 43 43 42 44 44 43 42 40 40 42 40 39 41 42 44 45 47 49 50 50 46 47 40
50 49 47 49 53 52 50 48 46 45 46 43 43 43 42 43 44 45 45 45 42 40 40 41 41 39 39 40 41 42 45 46 48 47 46 41 39 37
49 50 50 50 49 49 48 45 43 43 42 42 43 41 42 45 45 45 44 43 40 39 39 39 39 37 37 39 42 40 42 45 43 44 42 38 31 37
49 49 50 50 48 47 45 44 43 42 43 43 42 42 44 47 45 41 38 39 40 39 38 37 35 34 35 37 40 43 43 40 39 37 38 33 31 30
44 44 44 44 44 42 41 41 40 41 41 43 44 45 47 48 43 39 38 39 39 38 37 33 32 32 34 36 38 40 41 39 36 33 34 30 31 27
44 42 41 42 43 42 43 42 43 44 45 45 44 45 45 44 43 40 40 39 36 33 32 30 29 31 33 34 35 34 35 36 35 34 28 28 27 23
33 36 38 39 41 41 40 39 41 42 41 42 43 44 43 42 41 39 38 36 31 30 29 27 29 31 32 31 30 30 30 31 32 29 28 28 24 20

GFSNE_500_spd_156.txt.gz
Wind_Speed
19 21 24 27 31 33 32 30 28 26 29 30 30 27 24 21 18 17 15 10 18 19 18 30 31 31 28 32 35 38 42 41 38 40 41 43 46 46
21 24 27 29 30 29 30 28 26 25 24 24 25 26 24 23 22 19 18 17 20 24 26 31 34 34 36 38 38 39 40 40 40 41 43 42 42 43
23 25 23 23 24 23 25 26 26 24 23 24 22 22 23 23 22 21 20 20 21 21 25 29 31 35 36 38 38 38 40 40 41 42 45 45 44 44
26 24 22 21 22 24 24 26 27 27 26 24 24 24 23 22 21 21 21 21 20 20 20 25 29 31 31 31 31 33 35 36 35 40 41 42 43 44
24 22 22 23 23 26 26 27 27 28 29 29 28 26 25 26 25 25 24 25 25 24 24 23 23 24 26 26 27 30 33 33 34 35 36 37 38 39
27 25 26 26 26 27 27 27 28 30 30 31 32 32 30 28 28 27 27 28 28 29 31 30 30 30 30 31 32 33 32 32 34 34 33 34 36 37
29 30 31 32 33 31 31 30 31 32 34 35 34 32 32 32 31 29 30 31 31 32 33 34 36 36 37 38 39 39 38 38 38 40 41 42 43 43
34 35 36 37 38 36 35 38 37 38 37 37 36 34 34 34 35 34 33 33 34 35 35 35 37 39 40 42 42 42 42 42 42 42 43 44 46 47
43 42 43 44 45 45 43 42 43 43 42 42 40 39 38 37 37 37 38 38 38 37 39 39 39 40 40 41 42 43 43 43 44 45 45 44 44 45
49 50 49 49 50 50 50 49 49 48 48 46 44 42 41 41 41 41 40 42 42 41 41 41 42 42 42 42 42 43 43 42 41 42 42 44 45 46
55 55 54 53 54 53 53 54 53 52 51 49 48 47 46 45 45 44 44 43 44 44 44 44 44 44 44 44 44 43 43 42 42 43 44 45 47 48
60 58 55 54 55 54 55 55 56 57 54 52 52 50 49 49 48 46 47 46 47 47 47 45 45 44 44 44 45 44 44 44 45 46 47 48 49 49
65 62 58 56 55 56 58 59 59 59 57 55 54 52 51 51 51 51 48 47 48 49 47 46 46 44 44 43 44 44 44 45 46 47 48 49 50 50
65 63 61 61 58 59 61 62 61 59 58 56 55 54 53 54 56 55 50 49 49 48 46 45 44 43 42 43 43 44 44 45 46 47 48 49 50 52
63 62 64 62 61 61 63 61 59 58 59 57 56 55 55 58 55 53 50 49 48 47 45 46 43 42 41 42 42 43 42 46 47 48 48 49 50 52
64 63 63 62 60 59 59 59 59 59 60 60 60 61 60 58 53 49 47 47 47 44 45 45 41 42 42 41 40 40 40 41 44 45 45 47 49 52
63 61 60 59 60 60 58 57 56 56 56 56 52 50 50 50 49 45 45 45 44 43 44 43 41 40 39 39 40 39 40 40 41 42 43 47 51 53
60 59 58 57 56 56 55 56 53 51 50 49 50 49 48 45 41 42 42 42 42 43 43 41 38 36 37 39 39 39 39 37 38 39 41 44 47 49
51 47 51 50 51 50 51 51 47 48 48 48 47 43 40 40 38 39 41 42 42 40 40 38 35 35 36 37 39 37 35 35 37 40 42 45 45 44
47 39 33 33 35 38 39 40 40 40 40 38 37 39 39 37 38 40 41 41 42 41 40 38 36 35 35 36 36 36 32 32 35 38 40 42 41 37
41 41 44 43 39 35 34 35 36 37 38 38 38 39 38 39 41 42 42 42 42 41 39 37 35 35 34 34 31 31 32 31 34 34 34 34 31 30
39 40 41 40 40 37 36 37 38 38 39 39 40 40 41 42 43 43 42 41 39 39 38 34 36 35 31 29 28 29 31 33 34 31 27 26 26 29
26 26 28 29 30 31 34 36 38 39 40 41 40 40 40 42 42 41 39 36 36 37 36 35 35 31 27 25 26 28 30 31 31 30 23 26 27 27

GFSNE_500_spd_159.txt.gz
Wind_Speed
17 17 20 23 24 23 24 22 23 26 27 27 28 29 28 27 25 24 23 17 10 11 7 12 16 23 31 29 28 30 29 32 37 44 45 39 40 42
19 19 21 23 21 19 19 22 24 25 26 26 27 28 29 29 29 27 25 22 19 17 12 8 12 21 27 30 29 34 38 40 42 45 49 50 48 47
23 23 23 22 20 20 20 23 23 25 26 28 29 28 28 27 27 27 26 25 25 23 20 18 15 15 20 26 27 29 32 35 40 44 45 44 45 43
26 26 25 25 23 23 23 23 23 21 24 23 28 30 31 31 29 26 25 24 24 24 24 24 23 23 23 25 26 29 31 31 33 35 35 37 39 41
30 28 27 27 27 27 26 26 24 24 26 27 29 29 30 33 33 31 28 26 26 26 27 27 28 30 30 31 31 31 31 30 30 31 32 34 35 36
34 33 32 32 32 33 32 32 32 31 29 30 32 34 35 35 33 34 34 33 30 28 28 29 30 33 34 35 36 37 38 38 38 39 39 38 37 37
38 37 36 37 38 39 39 39 39 39 38 39 38 37 39 39 37 35 36 37 38 36 34 33 33 33 34 36 38 39 41 43 43 43 43 43 43 44
44 43 43 42 42 42 43 44 45 45 45 45 46 45 44 43 41 40 39 39 39 40 41 40 38 36 36 37 38 40 41 43 43 43 44 45 46 46
49 50 49 49 50 51 50 50 50 50 51 50 49 50 49 48 47 45 43 42 41 41 43 44 44 41 40 40 41 42 42 42 43 44 45 45 45 46
55 56 56 56 56 57 57 58 57 56 56 55 54 53 51 52 52 51 48 47 46 46 44 45 47 46 43 42 43 44 44 44 44 45 45 45 45 45
62 63 62 61 61 60 58 59 59 58 57 56 57 57 56 56 55 54 51 50 50 49 49 48 48 49 47 44 45 45 45 44 45 46 46 45 45 45
66 65 65 66 67 67 64 62 60 60 59 59 60 59 60 60 60 56 53 53 53 51 51 52 52 50 49 48 45 44 44 45 45 45 46 46 46 46
70 69 69 69 69 69 69 65 63 64 61 61 62 63 61 62 60 57 54 55 54 53 52 55 54 51 49 47 45 45 46 46 45 45 46 46 46 46
72 72 71 70 68 70 68 66 67 66 66 64 64 65 63 62 57 55 55 54 55 53 55 56 52 50 47 47 47 47 47 46 44 44 46 45 45 44
68 69 72 71 69 67 68 70 68 66 62 64 67 66 66 63 58 56 57 58 54 58 53 51 49 46 45 45 47 48 46 45 42 43 44 43 43 44
65 63 63 66 70 63 60 60 62 63 63 62 61 62 62 61 56 56 60 59 52 49 49 48 46 44 44 45 45 45 44 42 42 43 43 43 43 42
58 57 57 58 59 64 67 58 54 57 60 57 54 51 53 56 58 58 49 46 46 46 46 44 41 42 43 44 43 42 40 40 40 40 40 41 42 41
53 54 52 49 49 52 54 55 51 51 54 52 50 45 42 41 41 42 44 43 43 42 41 39 39 39 41 40 39 41 41 40 38 39 37 35 39 39
49 46 41 44 47 49 43 43 44 46 45 43 41 37 37 37 40 40 38 38 39 40 38 35 36 38 38 38 39 39 37 37 35 35 33 34 36 39
36 35 38 43 47 45 48 35 34 35 36 34 35 32 35 35 35 34 35 36 39 37 35 36 38 37 37 38 38 38 34 32 31 30 31 34 37 39
32 32 34 37 43 44 44 42 42 38 35 33 33 34 34 34 33 33 35 36 37 36 37 38 37 37 36 36 36 34 32 29 26 27 30 34 37 38
29 23 22 20 22 26 30 35 38 42 42 39 37 36 35 36 36 37 39 38 38 37 37 36 36 35 35 34 32 30 29 27 24 26 29 32 32 31
19 24 24 24 25 26 28 27 25 27 32 33 36 36 37 37 37 37 39 37 36 34 33 32 32 32 32 31 29 27 24 24 27 30 30 29 30 29